Time,TemperatureF,DewpointF,PressureIn,WindDirection,WindDirectionDegrees,WindSpeedMPH,WindSpeedGustMPH,Humidity,HourlyPrecipIn,Conditions,Clouds,dailyrainin,SoftwareType,DateUTC
2013-02-17 00:04:00,46.4,9.6,30.00,NW,326,9.0,9.0,22,0.00,,,0.00,Wunderground v.1.15,2013-02-17 07:04:00,
2013-02-17 00:06:00,46.5,9.6,30.00,NW,315,3.0,9.0,22,0.00,,,0.00,Wunderground v.1.15,2013-02-17 07:06:00,
2013-02-17 00:10:00,46.2,9.4,30.00,NNW,332,1.0,4.0,22,0.00,,,0.00,Wunderground v.1.15,2013-02-17 07:10:00,
2013-02-17 00:12:00,46.0,9.2,30.00,West,281,1.0,4.0,22,0.00,,,0.00,Wunderground v.1.15,2013-02-17 07:12:00,
2013-02-17 00:15:00,45.4,8.7,30.00,NNE,27,0.0,4.0,22,0.00,,,0.00,Wunderground v.1.15,2013-02-17 07:15:00,
2013-02-17 00:18:00,44.9,9.3,29.99,WNW,296,12.0,12.0,23,0.00,,,0.00,Wunderground v.1.15,2013-02-17 07:18:00,
2013-02-17 00:22:00,45.8,9.0,29.99,NW,318,3.0,8.0,22,0.00,,,0.00,Wunderground v.1.15,2013-02-17 07:22:00,
2013-02-17 00:24:00,46.0,9.2,29.99,West,269,0.0,8.0,22,0.00,,,0.00,Wunderground v.1.15,2013-02-17 07:24:00,
2013-02-17 00:28:00,46.1,9.3,29.99,NW,318,10.0,10.0,22,0.00,,,0.00,Wunderground v.1.15,2013-02-17 07:28:00,
2013-02-17 00:31:00,46.3,8.4,29.99,WNW,300,7.0,7.0,21,0.00,,,0.00,Wunderground v.1.15,2013-02-17 07:31:00,
2013-02-17 00:34:00,46.6,8.7,29.99,NW,314,9.0,9.0,21,0.00,,,0.00,Wunderground v.1.15,2013-02-17 07:34:00,
2013-02-17 00:36:00,46.7,8.8,29.98,North,350,6.0,9.0,21,0.00,,,0.00,Wunderground v.1.15,2013-02-17 07:36:00,
2013-02-17 00:38:00,46.7,8.8,29.98,NW,326,7.0,9.0,21,0.00,,,0.00,Wunderground v.1.15,2013-02-17 07:38:00,
2013-02-17 00:42:00,46.7,8.8,29.98,NNE,33,4.0,7.0,21,0.00,,,0.00,Wunderground v.1.15,2013-02-17 07:42:00,
2013-02-17 00:45:00,45.1,8.5,29.99,NE,53,5.0,7.0,22,0.00,,,0.00,Wunderground v.1.15,2013-02-17 07:45:00,
2013-02-17 00:48:00,43.4,8.0,29.98,NE,37,1.0,7.0,23,0.00,,,0.00,Wunderground v.1.15,2013-02-17 07:48:00,
2013-02-17 00:51:00,41.9,8.6,29.99,ESE,103,1.0,3.0,25,0.00,,,0.00,Wunderground v.1.15,2013-02-17 07:51:00,
2013-02-17 00:53:00,41.1,7.9,29.99,ESE,107,0.0,3.0,25,0.00,,,0.00,Wunderground v.1.15,2013-02-17 07:53:00,
2013-02-17 00:59:00,39.3,8.9,29.99,SW,233,1.0,3.0,28,0.00,,,0.00,Wunderground v.1.15,2013-02-17 07:59:00,
2013-02-17 01:00:00,39.1,8.7,29.98,WSW,250,1.0,1.0,28,0.00,,,0.00,Wunderground v.1.15,2013-02-17 08:00:00,
2013-02-17 01:01:00,38.9,8.5,29.98,SSW,212,2.0,2.0,28,0.00,,,0.00,Wunderground v.1.15,2013-02-17 08:01:00,
2013-02-17 01:06:00,38.3,8.8,29.98,SSE,154,1.0,5.0,29,0.00,,,0.00,Wunderground v.1.15,2013-02-17 08:06:00,
2013-02-17 01:07:00,38.2,8.7,29.98,South,173,3.0,5.0,29,0.00,,,0.00,Wunderground v.1.15,2013-02-17 08:07:00,
2013-02-17 01:08:00,38.0,8.5,29.98,SSW,204,2.0,5.0,29,0.00,,,0.00,Wunderground v.1.15,2013-02-17 08:08:00,
2013-02-17 01:10:00,37.7,9.0,29.98,SSW,204,3.0,3.0,30,0.00,,,0.00,Wunderground v.1.15,2013-02-17 08:10:00,
2013-02-17 01:16:00,37.5,8.8,29.98,WSW,255,5.0,5.0,30,0.00,,,0.00,Wunderground v.1.15,2013-02-17 08:16:00,
2013-02-17 01:17:00,37.3,8.7,29.98,West,271,4.0,5.0,30,0.00,,,0.00,Wunderground v.1.15,2013-02-17 08:17:00,
2013-02-17 01:19:00,37.1,9.2,29.98,WSW,238,2.0,5.0,31,0.00,,,0.00,Wunderground v.1.15,2013-02-17 08:19:00,
2013-02-17 01:21:00,36.8,8.9,29.98,SW,217,3.0,4.0,31,0.00,,,0.00,Wunderground v.1.15,2013-02-17 08:21:00,
2013-02-17 01:26:00,36.5,9.4,29.97,SSE,153,2.0,6.0,32,0.00,,,0.00,Wunderground v.1.15,2013-02-17 08:26:00,
2013-02-17 01:30:00,38.2,9.4,29.97,NW,310,1.0,3.0,30,0.00,,,0.00,Wunderground v.1.15,2013-02-17 08:30:00,
2013-02-17 01:31:00,38.8,9.2,29.97,SSW,203,3.0,3.0,29,0.00,,,0.00,Wunderground v.1.15,2013-02-17 08:31:00,
2013-02-17 01:32:00,39.3,8.9,29.97,West,270,5.0,5.0,28,0.00,,,0.00,Wunderground v.1.15,2013-02-17 08:32:00,
2013-02-17 01:37:00,40.5,9.1,29.97,South,172,4.0,5.0,27,0.00,,,0.00,Wunderground v.1.15,2013-02-17 08:37:00,
2013-02-17 01:38:00,40.5,9.1,29.97,West,262,3.0,5.0,27,0.00,,,0.00,Wunderground v.1.15,2013-02-17 08:38:00,
2013-02-17 01:42:00,41.1,8.8,29.97,North,352,3.0,4.0,26,0.00,,,0.00,Wunderground v.1.15,2013-02-17 08:42:00,
2013-02-17 01:45:00,42.2,8.8,29.97,WNW,300,2.0,6.0,25,0.00,,,0.00,Wunderground v.1.15,2013-02-17 08:45:00,
2013-02-17 01:46:00,42.4,9.0,29.97,West,260,1.0,6.0,25,0.00,,,0.00,Wunderground v.1.15,2013-02-17 08:46:00,
2013-02-17 01:49:00,42.9,9.4,29.96,WNW,285,5.0,6.0,25,0.00,,,0.00,Wunderground v.1.15,2013-02-17 08:49:00,
2013-02-17 01:51:00,43.5,9.0,29.97,WSW,248,1.0,3.0,24,0.00,,,0.00,Wunderground v.1.15,2013-02-17 08:51:00,
2013-02-17 01:52:00,43.7,8.3,29.97,WNW,283,2.0,3.0,23,0.00,,,0.00,Wunderground v.1.15,2013-02-17 08:52:00,
2013-02-17 01:57:00,44.8,9.2,29.96,ESE,116,5.0,6.0,23,0.00,,,0.00,Wunderground v.1.15,2013-02-17 08:57:00,
2013-02-17 01:58:00,44.9,9.3,29.96,East,81,2.0,6.0,23,0.00,,,0.00,Wunderground v.1.15,2013-02-17 08:58:00,
2013-02-17 01:59:00,45.0,9.4,29.96,ENE,75,2.0,6.0,23,0.00,,,0.00,Wunderground v.1.15,2013-02-17 08:59:00,
2013-02-17 02:01:00,45.0,9.4,29.96,NW,309,4.0,5.0,23,0.00,,,0.00,Wunderground v.1.15,2013-02-17 09:01:00,
2013-02-17 02:02:00,44.8,9.2,29.96,WNW,293,2.0,8.0,23,0.00,,,0.00,Wunderground v.1.15,2013-02-17 09:02:00,
2013-02-17 02:03:00,44.8,8.2,29.96,NNW,335,1.0,8.0,22,0.00,,,0.00,Wunderground v.1.15,2013-02-17 09:03:00,
2013-02-17 02:04:00,44.8,8.2,29.96,North,1,1.0,8.0,22,0.00,,,0.00,Wunderground v.1.15,2013-02-17 09:04:00,
2013-02-17 02:06:00,44.9,8.3,29.96,WNW,282,1.0,8.0,22,0.00,,,0.00,Wunderground v.1.15,2013-02-17 09:06:00,
2013-02-17 02:07:00,44.9,8.3,29.96,South,172,1.0,8.0,22,0.00,,,0.00,Wunderground v.1.15,2013-02-17 09:07:00,
2013-02-17 02:08:00,44.9,8.3,29.96,NW,323,2.0,8.0,22,0.00,,,0.00,Wunderground v.1.15,2013-02-17 09:08:00,
2013-02-17 02:09:00,45.0,8.4,29.96,SW,225,3.0,8.0,22,0.00,,,0.00,Wunderground v.1.15,2013-02-17 09:09:00,
2013-02-17 02:11:00,45.1,8.5,29.95,West,259,5.0,12.0,22,0.00,,,0.00,Wunderground v.1.15,2013-02-17 09:11:00,
2013-02-17 02:12:00,45.2,8.5,29.95,West,277,7.0,12.0,22,0.00,,,0.00,Wunderground v.1.15,2013-02-17 09:12:00,
2013-02-17 02:13:00,45.3,8.6,29.95,SSW,210,1.0,12.0,22,0.00,,,0.00,Wunderground v.1.15,2013-02-17 09:13:00,
2013-02-17 02:14:00,45.3,8.6,29.96,ESE,102,4.0,12.0,22,0.00,,,0.00,Wunderground v.1.15,2013-02-17 09:14:00,
2013-02-17 02:16:00,45.5,7.8,29.95,WSW,250,8.0,22.0,21,0.00,,,0.00,Wunderground v.1.15,2013-02-17 09:16:00,
2013-02-17 02:17:00,45.6,7.8,29.95,SSW,211,9.0,22.0,21,0.00,,,0.00,Wunderground v.1.15,2013-02-17 09:17:00,
2013-02-17 02:18:00,45.7,7.9,29.95,West,277,7.0,22.0,21,0.00,,,0.00,Wunderground v.1.15,2013-02-17 09:18:00,
2013-02-17 02:19:00,45.8,8.0,29.95,WSW,246,3.0,22.0,21,0.00,,,0.00,Wunderground v.1.15,2013-02-17 09:19:00,
2013-02-17 02:21:00,45.9,8.1,29.95,West,271,6.0,15.0,21,0.00,,,0.00,Wunderground v.1.15,2013-02-17 09:21:00,
2013-02-17 02:22:00,45.9,8.1,29.95,WSW,240,11.0,15.0,21,0.00,,,0.00,Wunderground v.1.15,2013-02-17 09:22:00,
2013-02-17 02:23:00,46.0,8.2,29.95,WSW,246,4.0,21.0,21,0.00,,,0.00,Wunderground v.1.15,2013-02-17 09:23:00,
2013-02-17 02:24:00,46.0,8.2,29.95,SW,231,7.0,21.0,21,0.00,,,0.00,Wunderground v.1.15,2013-02-17 09:24:00,
2013-02-17 02:26:00,46.1,8.3,29.95,West,263,15.0,21.0,21,0.00,,,0.00,Wunderground v.1.15,2013-02-17 09:26:00,
2013-02-17 02:27:00,46.1,8.3,29.94,West,274,16.0,22.0,21,0.00,,,0.00,Wunderground v.1.15,2013-02-17 09:27:00,
2013-02-17 02:29:00,46.3,7.3,29.95,WNW,284,9.0,22.0,20,0.00,,,0.00,Wunderground v.1.15,2013-02-17 09:29:00,
2013-02-17 02:30:00,46.4,8.5,29.95,West,281,6.0,9.0,21,0.00,,,0.00,Wunderground v.1.15,2013-02-17 09:30:00,
2013-02-17 02:31:00,46.4,7.4,29.95,West,260,6.0,12.0,20,0.00,,,0.00,Wunderground v.1.15,2013-02-17 09:31:00,
2013-02-17 02:32:00,46.4,7.4,29.95,SW,219,8.0,12.0,20,0.00,,,0.00,Wunderground v.1.15,2013-02-17 09:32:00,
2013-02-17 02:34:00,46.4,7.4,29.95,SSW,200,4.0,12.0,20,0.00,,,0.00,Wunderground v.1.15,2013-02-17 09:34:00,
2013-02-17 02:35:00,46.3,7.3,29.95,SSW,195,12.0,12.0,20,0.00,,,0.00,Wunderground v.1.15,2013-02-17 09:35:00,
2013-02-17 02:36:00,46.4,7.4,29.95,SW,226,4.0,12.0,20,0.00,,,0.00,Wunderground v.1.15,2013-02-17 09:36:00,
2013-02-17 02:37:00,46.4,7.4,29.95,SW,233,3.0,12.0,20,0.00,,,0.00,Wunderground v.1.15,2013-02-17 09:37:00,
2013-02-17 02:39:00,46.3,7.3,29.95,NW,307,4.0,12.0,20,0.00,,,0.00,Wunderground v.1.15,2013-02-17 09:39:00,
2013-02-17 02:40:00,46.2,7.3,29.95,NW,304,3.0,6.0,20,0.00,,,0.00,Wunderground v.1.15,2013-02-17 09:40:00,
2013-02-17 02:42:00,46.0,7.1,29.94,South,190,2.0,6.0,20,0.00,,,0.00,Wunderground v.1.15,2013-02-17 09:42:00,
2013-02-17 02:44:00,45.8,8.0,29.94,WNW,284,4.0,6.0,21,0.00,,,0.00,Wunderground v.1.15,2013-02-17 09:44:00,
2013-02-17 02:45:00,45.7,7.9,29.94,NW,307,5.0,6.0,21,0.00,,,0.00,Wunderground v.1.15,2013-02-17 09:45:00,
2013-02-17 02:47:00,45.9,7.0,29.94,WSW,249,2.0,8.0,20,0.00,,,0.00,Wunderground v.1.15,2013-02-17 09:47:00,
2013-02-17 02:48:00,45.9,7.0,29.94,NW,318,1.0,8.0,20,0.00,,,0.00,Wunderground v.1.15,2013-02-17 09:48:00,
2013-02-17 02:49:00,46.0,7.1,29.94,WNW,300,2.0,8.0,20,0.00,,,0.00,Wunderground v.1.15,2013-02-17 09:49:00,
2013-02-17 02:50:00,46.1,7.2,29.93,NW,304,0.0,3.0,20,0.00,,,0.00,Wunderground v.1.15,2013-02-17 09:50:00,
2013-02-17 02:52:00,46.1,7.2,29.93,NNE,27,2.0,3.0,20,0.00,,,0.00,Wunderground v.1.15,2013-02-17 09:52:00,
2013-02-17 02:53:00,46.1,7.2,29.93,NNW,341,2.0,5.0,20,0.00,,,0.00,Wunderground v.1.15,2013-02-17 09:53:00,
2013-02-17 02:54:00,46.1,7.2,29.93,NNW,343,1.0,5.0,20,0.00,,,0.00,Wunderground v.1.15,2013-02-17 09:54:00,
2013-02-17 02:55:00,46.1,7.2,29.93,NNW,343,0.0,5.0,20,0.00,,,0.00,Wunderground v.1.15,2013-02-17 09:55:00,
2013-02-17 02:57:00,45.9,7.0,29.93,SSE,165,4.0,5.0,20,0.00,,,0.00,Wunderground v.1.15,2013-02-17 09:57:00,
2013-02-17 02:58:00,45.6,7.8,29.92,SSE,165,3.0,5.0,21,0.00,,,0.00,Wunderground v.1.15,2013-02-17 09:58:00,
2013-02-17 02:59:00,45.1,7.4,29.93,SSW,207,2.0,5.0,21,0.00,,,0.00,Wunderground v.1.15,2013-02-17 09:59:00,
2013-02-17 03:00:00,44.8,7.2,29.93,SW,231,3.0,3.0,21,0.00,,,0.00,Wunderground v.1.15,2013-02-17 10:00:00,
2013-02-17 03:02:00,44.2,7.7,29.93,WSW,257,5.0,5.0,22,0.00,,,0.00,Wunderground v.1.15,2013-02-17 10:02:00,
2013-02-17 03:04:00,44.0,7.5,29.93,SSW,204,4.0,5.0,22,0.00,,,0.00,Wunderground v.1.15,2013-02-17 10:04:00,
2013-02-17 03:05:00,44.0,7.5,29.92,South,190,4.0,5.0,22,0.00,,,0.00,Wunderground v.1.15,2013-02-17 10:05:00,
2013-02-17 03:07:00,43.8,7.4,29.93,SW,221,3.0,5.0,22,0.00,,,0.00,Wunderground v.1.15,2013-02-17 10:07:00,
2013-02-17 03:09:00,43.7,8.3,29.92,SSW,200,5.0,6.0,23,0.00,,,0.00,Wunderground v.1.15,2013-02-17 10:09:00,
2013-02-17 03:10:00,43.6,8.2,29.92,SSW,200,4.0,5.0,23,0.00,,,0.00,Wunderground v.1.15,2013-02-17 10:10:00,
2013-02-17 03:12:00,43.7,8.3,29.92,SSW,212,6.0,8.0,23,0.00,,,0.00,Wunderground v.1.15,2013-02-17 10:12:00,
2013-02-17 03:15:00,43.9,8.4,29.92,SW,231,2.0,8.0,23,0.00,,,0.00,Wunderground v.1.15,2013-02-17 10:15:00,
2013-02-17 03:17:00,43.6,8.2,29.92,WSW,245,3.0,8.0,23,0.00,,,0.00,Wunderground v.1.15,2013-02-17 10:17:00,
2013-02-17 03:20:00,43.1,8.7,29.91,WSW,257,4.0,4.0,24,0.00,,,0.00,Wunderground v.1.15,2013-02-17 10:20:00,
2013-02-17 03:23:00,42.4,9.0,29.91,WSW,256,4.0,6.0,25,0.00,,,0.00,Wunderground v.1.15,2013-02-17 10:23:00,
2013-02-17 03:25:00,42.2,10.6,29.91,SW,231,4.0,6.0,27,0.00,,,0.00,Wunderground v.1.15,2013-02-17 10:25:00,
2013-02-17 03:26:00,42.1,10.5,29.91,SW,231,5.0,6.0,27,0.00,,,0.00,Wunderground v.1.15,2013-02-17 10:26:00,
2013-02-17 03:28:00,42.2,12.2,29.91,SW,217,7.0,7.0,29,0.00,,,0.00,Wunderground v.1.15,2013-02-17 10:28:00,
2013-02-17 03:30:00,42.2,12.2,29.90,SSW,210,6.0,6.0,29,0.00,,,0.00,Wunderground v.1.15,2013-02-17 10:30:00,
2013-02-17 03:31:00,42.1,12.1,29.90,SW,228,4.0,6.0,29,0.00,,,0.00,Wunderground v.1.15,2013-02-17 10:31:00,
2013-02-17 03:33:00,41.9,9.5,29.90,SSW,207,6.0,6.0,26,0.00,,,0.00,Wunderground v.1.15,2013-02-17 10:33:00,
2013-02-17 03:35:00,42.2,10.6,29.89,West,263,3.0,9.0,27,0.00,,,0.00,Wunderground v.1.15,2013-02-17 10:35:00,
2013-02-17 03:36:00,42.2,10.6,29.89,West,271,2.0,9.0,27,0.00,,,0.00,Wunderground v.1.15,2013-02-17 10:36:00,
2013-02-17 03:38:00,42.0,12.0,29.89,West,273,3.0,9.0,29,0.00,,,0.00,Wunderground v.1.15,2013-02-17 10:38:00,
2013-02-17 03:40:00,41.8,11.0,29.89,West,271,2.0,4.0,28,0.00,,,0.00,Wunderground v.1.15,2013-02-17 10:40:00,
2013-02-17 03:41:00,41.7,10.1,29.89,West,260,3.0,4.0,27,0.00,,,0.00,Wunderground v.1.15,2013-02-17 10:41:00,
2013-02-17 03:43:00,41.7,9.3,29.89,West,261,4.0,4.0,26,0.00,,,0.00,Wunderground v.1.15,2013-02-17 10:43:00,
2013-02-17 03:45:00,41.6,8.3,29.88,WSW,241,3.0,6.0,25,0.00,,,0.00,Wunderground v.1.15,2013-02-17 10:45:00,
2013-02-17 03:46:00,41.6,8.3,29.88,West,259,3.0,6.0,25,0.00,,,0.00,Wunderground v.1.15,2013-02-17 10:46:00,
2013-02-17 03:48:00,41.4,9.0,29.88,SW,220,1.0,6.0,26,0.00,,,0.00,Wunderground v.1.15,2013-02-17 10:48:00,
2013-02-17 03:50:00,41.2,8.8,29.88,West,266,1.0,4.0,26,0.00,,,0.00,Wunderground v.1.15,2013-02-17 10:50:00,
2013-02-17 03:51:00,41.1,7.0,29.88,West,270,3.0,6.0,24,0.00,,,0.00,Wunderground v.1.15,2013-02-17 10:51:00,
2013-02-17 03:53:00,41.9,6.7,29.87,WNW,290,4.0,7.0,23,0.00,,,0.00,Wunderground v.1.15,2013-02-17 10:53:00,
2013-02-17 03:55:00,42.3,8.0,29.87,NNE,27,4.0,7.0,24,0.00,,,0.00,Wunderground v.1.15,2013-02-17 10:55:00,
2013-02-17 03:56:00,42.3,8.0,29.87,West,280,1.0,7.0,24,0.00,,,0.00,Wunderground v.1.15,2013-02-17 10:56:00,
2013-02-17 03:59:00,41.2,8.0,29.87,NW,307,1.0,7.0,25,0.00,,,0.00,Wunderground v.1.15,2013-02-17 10:59:00,
2013-02-17 04:00:00,40.9,7.7,29.87,NNW,348,0.0,3.0,25,0.00,,,0.00,Wunderground v.1.15,2013-02-17 11:00:00,
2013-02-17 04:01:00,40.8,7.6,29.87,SSW,203,2.0,3.0,25,0.00,,,0.00,Wunderground v.1.15,2013-02-17 11:01:00,
2013-02-17 04:04:00,40.8,7.6,29.87,SSE,166,3.0,5.0,25,0.00,,,0.00,Wunderground v.1.15,2013-02-17 11:04:00,
2013-02-17 04:05:00,41.0,7.8,29.87,ENE,77,3.0,5.0,25,0.00,,,0.00,Wunderground v.1.15,2013-02-17 11:05:00,
2013-02-17 04:06:00,41.0,6.9,29.86,ENE,68,3.0,5.0,24,0.00,,,0.00,Wunderground v.1.15,2013-02-17 11:06:00,
2013-02-17 04:09:00,41.6,7.4,29.86,SE,146,3.0,6.0,24,0.00,,,0.00,Wunderground v.1.15,2013-02-17 11:09:00,
2013-02-17 04:10:00,41.7,6.6,29.86,ESE,111,5.0,8.0,23,0.00,,,0.00,Wunderground v.1.15,2013-02-17 11:10:00,
2013-02-17 04:11:00,41.9,6.7,29.86,SSE,165,1.0,8.0,23,0.00,,,0.00,Wunderground v.1.15,2013-02-17 11:11:00,
2013-02-17 04:14:00,43.2,3.6,29.86,NNE,25,7.0,18.0,19,0.00,,,0.00,Wunderground v.1.15,2013-02-17 11:14:00,
2013-02-17 04:16:00,44.1,4.4,29.86,NNE,23,4.0,18.0,19,0.00,,,0.00,Wunderground v.1.15,2013-02-17 11:16:00,
2013-02-17 04:19:00,44.4,3.5,29.86,West,280,7.0,18.0,18,0.00,,,0.00,Wunderground v.1.15,2013-02-17 11:19:00,
2013-02-17 04:21:00,45.1,2.8,29.86,SSW,193,4.0,15.0,17,0.00,,,0.00,Wunderground v.1.15,2013-02-17 11:21:00,
2013-02-17 04:25:00,46.8,1.5,29.86,SW,226,7.0,15.0,15,0.00,,,0.00,Wunderground v.1.15,2013-02-17 11:25:00,
2013-02-17 04:26:00,47.2,1.8,29.86,WSW,240,6.0,15.0,15,0.00,,,0.00,Wunderground v.1.15,2013-02-17 11:26:00,
2013-02-17 04:27:00,47.3,1.9,29.86,West,259,12.0,15.0,15,0.00,,,0.00,Wunderground v.1.15,2013-02-17 11:27:00,
2013-02-17 04:30:00,47.8,0.8,29.86,WNW,288,9.0,17.0,14,0.00,,,0.00,Wunderground v.1.15,2013-02-17 11:30:00,
2013-02-17 04:31:00,47.9,0.9,29.86,West,271,7.0,17.0,14,0.00,,,0.00,Wunderground v.1.15,2013-02-17 11:31:00,
2013-02-17 04:32:00,48.0,1.0,29.86,West,263,2.0,17.0,14,0.00,,,0.00,Wunderground v.1.15,2013-02-17 11:32:00,
2013-02-17 04:35:00,48.1,1.1,29.86,NNW,328,8.0,17.0,14,0.00,,,0.00,Wunderground v.1.15,2013-02-17 11:35:00,
2013-02-17 04:36:00,48.2,1.1,29.86,WSW,257,5.0,17.0,14,0.00,,,0.00,Wunderground v.1.15,2013-02-17 11:36:00,
2013-02-17 04:37:00,48.2,1.1,29.86,NW,307,13.0,17.0,14,0.00,,,0.00,Wunderground v.1.15,2013-02-17 11:37:00,
2013-02-17 04:40:00,48.4,-0.3,29.86,WNW,291,7.0,7.0,13,0.00,,,0.00,Wunderground v.1.15,2013-02-17 11:40:00,
2013-02-17 04:41:00,48.5,-0.2,29.86,West,270,3.0,12.0,13,0.00,,,0.00,Wunderground v.1.15,2013-02-17 11:41:00,
2013-02-17 04:42:00,48.5,-0.2,29.86,WNW,284,14.0,14.0,13,0.00,,,0.00,Wunderground v.1.15,2013-02-17 11:42:00,
2013-02-17 04:45:00,48.8,0.0,29.85,WNW,297,7.0,14.0,13,0.00,,,0.00,Wunderground v.1.15,2013-02-17 11:45:00,
2013-02-17 04:46:00,48.8,0.0,29.85,NW,304,5.0,14.0,13,0.00,,,0.00,Wunderground v.1.15,2013-02-17 11:46:00,
2013-02-17 04:47:00,48.8,0.0,29.85,NW,307,4.0,14.0,13,0.00,,,0.00,Wunderground v.1.15,2013-02-17 11:47:00,
2013-02-17 04:50:00,48.8,0.0,29.85,WNW,294,4.0,7.0,13,0.00,,,0.00,Wunderground v.1.15,2013-02-17 11:50:00,
2013-02-17 04:51:00,48.8,0.0,29.85,NW,310,4.0,12.0,13,0.00,,,0.00,Wunderground v.1.15,2013-02-17 11:51:00,
2013-02-17 04:52:00,48.8,0.0,29.85,WNW,284,6.0,12.0,13,0.00,,,0.00,Wunderground v.1.15,2013-02-17 11:52:00,
2013-02-17 04:55:00,48.7,-0.1,29.84,NE,40,3.0,12.0,13,0.00,,,0.00,Wunderground v.1.15,2013-02-17 11:55:00,
2013-02-17 04:56:00,48.6,-0.1,29.84,West,280,5.0,12.0,13,0.00,,,0.00,Wunderground v.1.15,2013-02-17 11:56:00,
2013-02-17 04:57:00,48.4,-0.3,29.85,NW,321,5.0,12.0,13,0.00,,,0.00,Wunderground v.1.15,2013-02-17 11:57:00,
2013-02-17 05:01:00,48.1,-0.5,29.84,WNW,297,3.0,6.0,13,0.00,,,0.00,Wunderground v.1.15,2013-02-17 12:01:00,
2013-02-17 05:02:00,48.2,-0.5,29.84,SSW,203,8.0,12.0,13,0.00,,,0.00,Wunderground v.1.15,2013-02-17 12:02:00,
2013-02-17 05:03:00,48.2,-0.5,29.84,SW,219,10.0,12.0,13,0.00,,,0.00,Wunderground v.1.15,2013-02-17 12:03:00,
2013-02-17 05:06:00,48.0,-0.6,29.84,SW,223,6.0,12.0,13,0.00,,,0.00,Wunderground v.1.15,2013-02-17 12:06:00,
2013-02-17 05:07:00,48.0,-0.6,29.83,SSW,212,6.0,12.0,13,0.00,,,0.00,Wunderground v.1.15,2013-02-17 12:07:00,
2013-02-17 05:08:00,47.9,0.9,29.84,SW,227,6.0,12.0,14,0.00,,,0.00,Wunderground v.1.15,2013-02-17 12:08:00,
2013-02-17 05:11:00,47.7,-2.5,29.83,NNW,339,5.0,11.0,12,0.00,,,0.00,Wunderground v.1.15,2013-02-17 12:11:00,
2013-02-17 05:12:00,47.7,-2.5,29.83,West,274,4.0,11.0,12,0.00,,,0.00,Wunderground v.1.15,2013-02-17 12:12:00,
2013-02-17 05:13:00,47.8,-2.5,29.83,NW,321,3.0,11.0,12,0.00,,,0.00,Wunderground v.1.15,2013-02-17 12:13:00,
2013-02-17 05:16:00,48.5,-3.7,29.83,WSW,252,6.0,16.0,11,0.00,,,0.00,Wunderground v.1.15,2013-02-17 12:16:00,
2013-02-17 05:17:00,48.5,-3.7,29.83,West,271,7.0,16.0,11,0.00,,,0.00,Wunderground v.1.15,2013-02-17 12:17:00,
2013-02-17 05:18:00,48.7,-3.6,29.83,West,271,6.0,16.0,11,0.00,,,0.00,Wunderground v.1.15,2013-02-17 12:18:00,
2013-02-17 05:21:00,49.0,-3.3,29.82,WSW,256,11.0,12.0,11,0.00,,,0.00,Wunderground v.1.15,2013-02-17 12:21:00,
2013-02-17 05:22:00,49.0,-3.3,29.82,West,262,12.0,15.0,11,0.00,,,0.00,Wunderground v.1.15,2013-02-17 12:22:00,
2013-02-17 05:23:00,49.1,-5.3,29.82,WSW,238,6.0,17.0,10,0.00,,,0.00,Wunderground v.1.15,2013-02-17 12:23:00,
2013-02-17 05:26:00,49.3,-3.1,29.82,West,267,11.0,17.0,11,0.00,,,0.00,Wunderground v.1.15,2013-02-17 12:26:00,
2013-02-17 05:27:00,49.3,-5.1,29.82,West,276,7.0,17.0,10,0.00,,,0.00,Wunderground v.1.15,2013-02-17 12:27:00,
2013-02-17 05:28:00,49.3,-3.1,29.82,WSW,253,4.0,17.0,11,0.00,,,0.00,Wunderground v.1.15,2013-02-17 12:28:00,
2013-02-17 05:29:00,49.2,-3.2,29.82,South,187,6.0,17.0,11,0.00,,,0.00,Wunderground v.1.15,2013-02-17 12:29:00,
2013-02-17 05:31:00,49.1,-3.3,29.82,West,276,7.0,13.0,11,0.00,,,0.00,Wunderground v.1.15,2013-02-17 12:31:00,
2013-02-17 05:32:00,49.0,-3.3,29.82,WSW,248,10.0,13.0,11,0.00,,,0.00,Wunderground v.1.15,2013-02-17 12:32:00,
2013-02-17 05:33:00,48.9,-3.4,29.82,WSW,243,6.0,13.0,11,0.00,,,0.00,Wunderground v.1.15,2013-02-17 12:33:00,
2013-02-17 05:34:00,48.9,-3.4,29.82,WSW,243,12.0,14.0,11,0.00,,,0.00,Wunderground v.1.15,2013-02-17 12:34:00,
2013-02-17 05:37:00,49.0,-3.3,29.82,WNW,291,6.0,17.0,11,0.00,,,0.00,Wunderground v.1.15,2013-02-17 12:37:00,
2013-02-17 05:38:00,49.0,-3.3,29.82,SW,223,11.0,17.0,11,0.00,,,0.00,Wunderground v.1.15,2013-02-17 12:38:00,
2013-02-17 05:39:00,49.0,-3.3,29.83,WNW,296,8.0,17.0,11,0.00,,,0.00,Wunderground v.1.15,2013-02-17 12:39:00,
2013-02-17 05:42:00,48.9,-3.4,29.82,NW,307,2.0,8.0,11,0.00,,,0.00,Wunderground v.1.15,2013-02-17 12:42:00,
2013-02-17 05:43:00,48.8,-3.5,29.82,WNW,287,11.0,15.0,11,0.00,,,0.00,Wunderground v.1.15,2013-02-17 12:43:00,
2013-02-17 05:44:00,48.8,-3.5,29.82,West,271,4.0,15.0,11,0.00,,,0.00,Wunderground v.1.15,2013-02-17 12:44:00,
2013-02-17 05:47:00,48.7,-3.6,29.82,WSW,255,5.0,15.0,11,0.00,,,0.00,Wunderground v.1.15,2013-02-17 12:47:00,
2013-02-17 05:48:00,48.6,-3.7,29.82,WNW,287,1.0,18.0,11,0.00,,,0.00,Wunderground v.1.15,2013-02-17 12:48:00,
2013-02-17 05:49:00,48.7,-3.6,29.82,ENE,58,9.0,18.0,11,0.00,,,0.00,Wunderground v.1.15,2013-02-17 12:49:00,
2013-02-17 05:52:00,48.7,-3.6,29.82,West,277,12.0,19.0,11,0.00,,,0.00,Wunderground v.1.15,2013-02-17 12:52:00,
2013-02-17 05:53:00,48.9,-3.4,29.82,NNW,328,5.0,19.0,11,0.00,,,0.00,Wunderground v.1.15,2013-02-17 12:53:00,
2013-02-17 05:54:00,48.9,-3.4,29.82,NE,50,5.0,19.0,11,0.00,,,0.00,Wunderground v.1.15,2013-02-17 12:54:00,
2013-02-17 05:57:00,49.0,-3.3,29.82,NW,312,8.0,19.0,11,0.00,,,0.00,Wunderground v.1.15,2013-02-17 12:57:00,
2013-02-17 05:58:00,49.0,-3.3,29.83,East,86,5.0,19.0,11,0.00,,,0.00,Wunderground v.1.15,2013-02-17 12:58:00,
2013-02-17 05:59:00,49.1,-3.3,29.82,ENE,67,5.0,19.0,11,0.00,,,0.00,Wunderground v.1.15,2013-02-17 12:59:00,
2013-02-17 06:02:00,49.2,-3.2,29.82,NW,321,2.0,11.0,11,0.00,,,0.00,Wunderground v.1.15,2013-02-17 13:02:00,
2013-02-17 06:04:00,49.1,-3.3,29.82,NE,40,8.0,18.0,11,0.00,,,0.00,Wunderground v.1.15,2013-02-17 13:04:00,
2013-02-17 06:07:00,49.1,-3.3,29.82,NNW,335,4.0,18.0,11,0.00,,,0.00,Wunderground v.1.15,2013-02-17 13:07:00,
2013-02-17 06:08:00,49.0,-3.3,29.82,NW,307,4.0,18.0,11,0.00,,,0.00,Wunderground v.1.15,2013-02-17 13:08:00,
2013-02-17 06:09:00,48.9,-3.4,29.81,West,276,7.0,18.0,11,0.00,,,0.00,Wunderground v.1.15,2013-02-17 13:09:00,
2013-02-17 06:12:00,48.8,-3.5,29.81,WNW,301,6.0,9.0,11,0.00,,,0.00,Wunderground v.1.15,2013-02-17 13:12:00,
2013-02-17 06:13:00,48.7,-3.6,29.81,WNW,300,8.0,21.0,11,0.00,,,0.00,Wunderground v.1.15,2013-02-17 13:13:00,
2013-02-17 06:14:00,48.8,-3.5,29.81,NW,319,14.0,21.0,11,0.00,,,0.00,Wunderground v.1.15,2013-02-17 13:14:00,
2013-02-17 06:17:00,48.8,-3.5,29.80,North,353,10.0,21.0,11,0.00,,,0.00,Wunderground v.1.15,2013-02-17 13:17:00,
2013-02-17 06:19:00,48.8,-1.7,29.80,NNE,16,11.0,21.0,12,0.00,,,0.00,Wunderground v.1.15,2013-02-17 13:19:00,
2013-02-17 06:20:00,48.8,-1.7,29.80,NNW,334,6.0,8.0,12,0.00,,,0.00,Wunderground v.1.15,2013-02-17 13:20:00,
2013-02-17 06:22:00,48.7,-1.8,29.80,NNW,328,3.0,9.0,12,0.00,,,0.00,Wunderground v.1.15,2013-02-17 13:22:00,
2013-02-17 06:24:00,48.5,-1.9,29.79,NNE,30,4.0,14.0,12,0.00,,,0.00,Wunderground v.1.15,2013-02-17 13:24:00,
2013-02-17 06:25:00,48.5,-1.9,29.79,West,278,8.0,14.0,12,0.00,,,0.00,Wunderground v.1.15,2013-02-17 13:25:00,
2013-02-17 06:27:00,47.7,0.7,29.79,West,281,3.0,14.0,14,0.00,,,0.00,Wunderground v.1.15,2013-02-17 13:27:00,
2013-02-17 06:29:00,47.0,3.0,29.79,West,276,2.0,14.0,16,0.00,,,0.00,Wunderground v.1.15,2013-02-17 13:29:00,
2013-02-17 06:30:00,46.8,2.9,29.79,West,276,0.0,5.0,16,0.00,,,0.00,Wunderground v.1.15,2013-02-17 13:30:00,
2013-02-17 06:32:00,45.6,3.2,29.79,WSW,238,4.0,7.0,17,0.00,,,0.00,Wunderground v.1.15,2013-02-17 13:32:00,
2013-02-17 06:34:00,44.8,2.6,29.79,West,269,3.0,7.0,17,0.00,,,0.00,Wunderground v.1.15,2013-02-17 13:34:00,
2013-02-17 06:35:00,44.7,3.7,29.79,WSW,255,5.0,7.0,18,0.00,,,0.00,Wunderground v.1.15,2013-02-17 13:35:00,
2013-02-17 06:37:00,43.5,3.9,29.79,SW,228,4.0,7.0,19,0.00,,,0.00,Wunderground v.1.15,2013-02-17 13:37:00,
2013-02-17 06:39:00,43.1,3.6,29.78,South,185,3.0,7.0,19,0.00,,,0.00,Wunderground v.1.15,2013-02-17 13:39:00,
2013-02-17 06:40:00,43.0,4.6,29.78,SSW,210,7.0,7.0,20,0.00,,,0.00,Wunderground v.1.15,2013-02-17 13:40:00,
2013-02-17 06:43:00,42.7,2.1,29.79,NNW,340,5.0,8.0,18,0.00,,,0.00,Wunderground v.1.15,2013-02-17 13:43:00,
2013-02-17 06:44:00,43.1,1.2,29.78,SSW,211,0.0,8.0,17,0.00,,,0.00,Wunderground v.1.15,2013-02-17 13:44:00,
2013-02-17 06:45:00,43.2,-0.1,29.78,SSW,212,0.0,8.0,16,0.00,,,0.00,Wunderground v.1.15,2013-02-17 13:45:00,
2013-02-17 06:48:00,43.3,1.3,29.78,SW,233,6.0,8.0,17,0.00,,,0.00,Wunderground v.1.15,2013-02-17 13:48:00,
2013-02-17 06:49:00,43.0,1.1,29.77,SW,231,6.0,8.0,17,0.00,,,0.00,Wunderground v.1.15,2013-02-17 13:49:00,
2013-02-17 06:50:00,43.0,1.1,29.77,SW,219,7.0,7.0,17,0.00,,,0.00,Wunderground v.1.15,2013-02-17 13:50:00,
2013-02-17 06:54:00,42.5,1.9,29.78,South,187,2.0,9.0,18,0.00,,,0.00,Wunderground v.1.15,2013-02-17 13:54:00,
2013-02-17 06:55:00,42.4,4.1,29.78,WSW,255,3.0,9.0,20,0.00,,,0.00,Wunderground v.1.15,2013-02-17 13:55:00,
2013-02-17 06:59:00,41.6,3.4,29.77,WSW,253,4.0,9.0,20,0.00,,,0.00,Wunderground v.1.15,2013-02-17 13:59:00,
2013-02-17 07:00:00,41.6,3.4,29.77,WSW,253,5.0,5.0,20,0.00,,,0.00,Wunderground v.1.15,2013-02-17 14:00:00,
2013-02-17 07:04:00,40.8,3.8,29.77,SSW,203,5.0,7.0,21,0.00,,,0.00,Wunderground v.1.15,2013-02-17 14:04:00,
2013-02-17 07:05:00,40.6,3.6,29.77,WSW,238,5.0,7.0,21,0.00,,,0.00,Wunderground v.1.15,2013-02-17 14:05:00,
2013-02-17 07:09:00,40.6,2.6,29.77,West,259,3.0,7.0,20,0.00,,,0.00,Wunderground v.1.15,2013-02-17 14:09:00,
2013-02-17 07:10:00,40.4,3.5,29.77,WSW,250,4.0,5.0,21,0.00,,,0.00,Wunderground v.1.15,2013-02-17 14:10:00,
2013-02-17 07:14:00,39.7,3.9,29.76,SSW,197,5.0,7.0,22,0.00,,,0.00,Wunderground v.1.15,2013-02-17 14:14:00,
2013-02-17 07:15:00,39.7,3.9,29.76,South,190,5.0,7.0,22,0.00,,,0.00,Wunderground v.1.15,2013-02-17 14:15:00,
2013-02-17 07:16:00,39.6,4.8,29.76,SSW,200,2.0,7.0,23,0.00,,,0.00,Wunderground v.1.15,2013-02-17 14:16:00,
2013-02-17 07:19:00,39.1,3.4,29.76,WSW,250,5.0,7.0,22,0.00,,,0.00,Wunderground v.1.15,2013-02-17 14:19:00,
2013-02-17 07:20:00,38.9,3.2,29.76,West,259,3.0,4.0,22,0.00,,,0.00,Wunderground v.1.15,2013-02-17 14:20:00,
2013-02-17 07:21:00,38.7,4.0,29.76,SW,221,5.0,5.0,23,0.00,,,0.00,Wunderground v.1.15,2013-02-17 14:21:00,
2013-02-17 07:24:00,38.3,4.6,29.76,South,169,5.0,5.0,24,0.00,,,0.00,Wunderground v.1.15,2013-02-17 14:24:00,
2013-02-17 07:25:00,38.3,3.7,29.76,SSW,210,5.0,5.0,23,0.00,,,0.00,Wunderground v.1.15,2013-02-17 14:25:00,
2013-02-17 07:26:00,38.4,3.8,29.76,SSW,200,4.0,5.0,23,0.00,,,0.00,Wunderground v.1.15,2013-02-17 14:26:00,
2013-02-17 07:29:00,38.8,4.1,29.75,SW,233,2.0,5.0,23,0.00,,,0.00,Wunderground v.1.15,2013-02-17 14:29:00,
2013-02-17 07:30:00,38.8,3.1,29.75,WSW,252,3.0,4.0,22,0.00,,,0.00,Wunderground v.1.15,2013-02-17 14:30:00,
2013-02-17 07:31:00,38.8,3.1,29.75,WSW,255,5.0,5.0,22,0.00,,,0.00,Wunderground v.1.15,2013-02-17 14:31:00,
2013-02-17 07:34:00,38.3,3.7,29.75,West,259,6.0,7.0,23,0.00,,,0.00,Wunderground v.1.15,2013-02-17 14:34:00,
2013-02-17 07:35:00,37.9,3.3,29.75,WSW,252,3.0,7.0,23,0.00,,,0.00,Wunderground v.1.15,2013-02-17 14:35:00,
2013-02-17 07:36:00,37.7,4.1,29.75,SSW,198,1.0,7.0,24,0.00,,,0.00,Wunderground v.1.15,2013-02-17 14:36:00,
2013-02-17 07:39:00,37.2,4.5,29.75,SSW,212,2.0,7.0,25,0.00,,,0.00,Wunderground v.1.15,2013-02-17 14:39:00,
2013-02-17 07:40:00,37.3,4.6,29.74,South,181,2.0,4.0,25,0.00,,,0.00,Wunderground v.1.15,2013-02-17 14:40:00,
2013-02-17 07:41:00,37.3,5.5,29.74,SSW,200,2.0,4.0,26,0.00,,,0.00,Wunderground v.1.15,2013-02-17 14:41:00,
2013-02-17 07:44:00,37.2,4.5,29.74,West,278,7.0,10.0,25,0.00,,,0.00,Wunderground v.1.15,2013-02-17 14:44:00,
2013-02-17 07:45:00,36.9,4.3,29.74,West,259,7.0,10.0,25,0.00,,,0.00,Wunderground v.1.15,2013-02-17 14:45:00,
2013-02-17 07:46:00,36.8,4.2,29.75,West,264,8.0,10.0,25,0.00,,,0.00,Wunderground v.1.15,2013-02-17 14:46:00,
2013-02-17 07:47:00,36.9,4.3,29.75,West,263,9.0,10.0,25,0.00,,,0.00,Wunderground v.1.15,2013-02-17 14:47:00,
2013-02-17 07:50:00,37.5,3.9,29.75,SW,224,5.0,5.0,24,0.00,,,0.00,Wunderground v.1.15,2013-02-17 14:50:00,
2013-02-17 07:51:00,38.0,3.4,29.75,SSW,210,4.0,6.0,23,0.00,,,0.00,Wunderground v.1.15,2013-02-17 14:51:00,
2013-02-17 07:52:00,38.6,2.0,29.74,SSW,205,1.0,6.0,21,0.00,,,0.00,Wunderground v.1.15,2013-02-17 14:52:00,
2013-02-17 07:55:00,39.9,3.1,29.74,SSW,197,0.0,6.0,21,0.00,,,0.00,Wunderground v.1.15,2013-02-17 14:55:00,
2013-02-17 07:56:00,40.2,3.3,29.74,SSE,158,0.0,6.0,21,0.00,,,0.00,Wunderground v.1.15,2013-02-17 14:56:00,
2013-02-17 07:57:00,40.5,3.6,29.74,West,271,2.0,6.0,21,0.00,,,0.00,Wunderground v.1.15,2013-02-17 14:57:00,
2013-02-17 08:00:00,40.7,2.7,29.74,WSW,246,3.0,4.0,20,0.00,,,0.00,Wunderground v.1.15,2013-02-17 15:00:00,
2013-02-17 08:01:00,40.7,3.7,29.74,WSW,250,4.0,5.0,21,0.00,,,0.00,Wunderground v.1.15,2013-02-17 15:01:00,
2013-02-17 08:03:00,40.6,3.6,29.74,WSW,257,6.0,6.0,21,0.00,,,0.00,Wunderground v.1.15,2013-02-17 15:03:00,
2013-02-17 08:05:00,40.3,4.4,29.74,West,259,5.0,7.0,22,0.00,,,0.00,Wunderground v.1.15,2013-02-17 15:05:00,
2013-02-17 08:07:00,40.2,4.3,29.74,SW,218,3.0,7.0,22,0.00,,,0.00,Wunderground v.1.15,2013-02-17 15:07:00,
2013-02-17 08:08:00,40.3,3.4,29.74,SSW,194,0.0,7.0,21,0.00,,,0.00,Wunderground v.1.15,2013-02-17 15:08:00,
2013-02-17 08:10:00,40.7,2.7,29.74,WSW,240,3.0,4.0,20,0.00,,,0.00,Wunderground v.1.15,2013-02-17 15:10:00,
2013-02-17 08:12:00,41.1,3.0,29.73,WSW,253,3.0,4.0,20,0.00,,,0.00,Wunderground v.1.15,2013-02-17 15:12:00,
2013-02-17 08:13:00,41.5,2.2,29.73,SSE,158,1.0,4.0,19,0.00,,,0.00,Wunderground v.1.15,2013-02-17 15:13:00,
2013-02-17 08:15:00,42.1,1.6,29.73,SE,124,0.0,4.0,18,0.00,,,0.00,Wunderground v.1.15,2013-02-17 15:15:00,
2013-02-17 08:17:00,42.6,2.0,29.73,East,97,0.0,4.0,18,0.00,,,0.00,Wunderground v.1.15,2013-02-17 15:17:00,
2013-02-17 08:18:00,42.9,2.2,29.73,East,86,2.0,4.0,18,0.00,,,0.00,Wunderground v.1.15,2013-02-17 15:18:00,
2013-02-17 08:20:00,43.5,1.5,29.73,East,86,1.0,2.0,17,0.00,,,0.00,Wunderground v.1.15,2013-02-17 15:20:00,
2013-02-17 08:22:00,43.8,1.7,29.73,SSE,153,2.0,2.0,17,0.00,,,0.00,Wunderground v.1.15,2013-02-17 15:22:00,
2013-02-17 08:23:00,44.0,1.9,29.73,SSE,148,3.0,3.0,17,0.00,,,0.00,Wunderground v.1.15,2013-02-17 15:23:00,
2013-02-17 08:26:00,44.6,2.4,29.72,East,99,1.0,4.0,17,0.00,,,0.00,Wunderground v.1.15,2013-02-17 15:26:00,
2013-02-17 08:27:00,44.8,2.6,29.73,East,98,1.0,4.0,17,0.00,,,0.00,Wunderground v.1.15,2013-02-17 15:27:00,
2013-02-17 08:28:00,44.9,2.6,29.73,West,281,2.0,4.0,17,0.00,,,0.00,Wunderground v.1.15,2013-02-17 15:28:00,
2013-02-17 08:31:00,45.3,3.0,29.73,WNW,297,0.0,1.0,17,0.00,,,0.00,Wunderground v.1.15,2013-02-17 15:31:00,
2013-02-17 08:32:00,45.4,3.0,29.73,WNW,296,0.0,1.0,17,0.00,,,0.00,Wunderground v.1.15,2013-02-17 15:32:00,
2013-02-17 08:33:00,45.4,3.0,29.73,WNW,291,1.0,1.0,17,0.00,,,0.00,Wunderground v.1.15,2013-02-17 15:33:00,
2013-02-17 08:36:00,45.8,2.1,29.72,ESE,102,0.0,4.0,16,0.00,,,0.00,Wunderground v.1.15,2013-02-17 15:36:00,
2013-02-17 08:37:00,46.0,2.2,29.72,SSW,212,0.0,4.0,16,0.00,,,0.00,Wunderground v.1.15,2013-02-17 15:37:00,
2013-02-17 08:38:00,46.0,2.2,29.72,SSW,212,1.0,4.0,16,0.00,,,0.00,Wunderground v.1.15,2013-02-17 15:38:00,
2013-02-17 08:39:00,46.1,2.3,29.72,SW,233,2.0,4.0,16,0.00,,,0.00,Wunderground v.1.15,2013-02-17 15:39:00,
2013-02-17 08:41:00,46.3,2.5,29.72,SW,231,1.0,3.0,16,0.00,,,0.00,Wunderground v.1.15,2013-02-17 15:41:00,
2013-02-17 08:42:00,46.4,1.2,29.73,SW,231,0.0,3.0,15,0.00,,,0.00,Wunderground v.1.15,2013-02-17 15:42:00,
2013-02-17 08:43:00,46.4,2.6,29.73,SW,231,0.0,3.0,16,0.00,,,0.00,Wunderground v.1.15,2013-02-17 15:43:00,
2013-02-17 08:44:00,46.4,2.6,29.73,SW,231,0.0,3.0,16,0.00,,,0.00,Wunderground v.1.15,2013-02-17 15:44:00,
2013-02-17 08:46:00,46.7,1.4,29.72,East,92,6.0,6.0,15,0.00,,,0.00,Wunderground v.1.15,2013-02-17 15:46:00,
2013-02-17 08:48:00,46.9,1.6,29.72,ESE,104,5.0,7.0,15,0.00,,,0.00,Wunderground v.1.15,2013-02-17 15:48:00,
2013-02-17 08:49:00,47.0,1.6,29.71,ESE,107,4.0,7.0,15,0.00,,,0.00,Wunderground v.1.15,2013-02-17 15:49:00,
2013-02-17 08:51:00,47.2,1.8,29.71,ESE,113,4.0,7.0,15,0.00,,,0.00,Wunderground v.1.15,2013-02-17 15:51:00,
2013-02-17 08:53:00,47.2,1.8,29.70,SE,146,4.0,7.0,15,0.00,,,0.00,Wunderground v.1.15,2013-02-17 15:53:00,
2013-02-17 08:54:00,47.3,1.9,29.70,East,101,5.0,9.0,15,0.00,,,0.00,Wunderground v.1.15,2013-02-17 15:54:00,
2013-02-17 08:56:00,47.3,1.9,29.70,ESE,108,2.0,9.0,15,0.00,,,0.00,Wunderground v.1.15,2013-02-17 15:56:00,
2013-02-17 08:58:00,47.4,2.0,29.70,SSE,163,2.0,9.0,15,0.00,,,0.00,Wunderground v.1.15,2013-02-17 15:58:00,
2013-02-17 08:59:00,47.5,0.6,29.70,SSE,156,2.0,9.0,14,0.00,,,0.00,Wunderground v.1.15,2013-02-17 15:59:00,
2013-02-17 09:01:00,47.7,0.7,29.71,SE,129,2.0,4.0,14,0.00,,,0.00,Wunderground v.1.15,2013-02-17 16:01:00,
2013-02-17 09:03:00,48.0,1.0,29.70,East,85,0.0,4.0,14,0.00,,,0.00,Wunderground v.1.15,2013-02-17 16:03:00,
2013-02-17 09:04:00,48.0,1.0,29.70,East,100,1.0,4.0,14,0.00,,,0.00,Wunderground v.1.15,2013-02-17 16:04:00,
2013-02-17 09:06:00,48.3,1.2,29.70,South,180,4.0,4.0,14,0.00,,,0.00,Wunderground v.1.15,2013-02-17 16:06:00,
2013-02-17 09:09:00,48.6,-0.1,29.71,SE,135,3.0,5.0,13,0.00,,,0.00,Wunderground v.1.15,2013-02-17 16:09:00,
2013-02-17 09:11:00,48.8,0.0,29.70,SE,124,2.0,5.0,13,0.00,,,0.00,Wunderground v.1.15,2013-02-17 16:11:00,
2013-02-17 09:14:00,48.9,0.1,29.69,SE,130,8.0,8.0,13,0.00,,,0.00,Wunderground v.1.15,2013-02-17 16:14:00,
2013-02-17 09:17:00,48.9,0.1,29.69,SE,130,3.0,8.0,13,0.00,,,0.00,Wunderground v.1.15,2013-02-17 16:17:00,
2013-02-17 09:19:00,48.9,0.1,29.69,East,84,2.0,8.0,13,0.00,,,0.00,Wunderground v.1.15,2013-02-17 16:19:00,
2013-02-17 09:20:00,48.8,0.0,29.69,ESE,120,5.0,5.0,13,0.00,,,0.00,Wunderground v.1.15,2013-02-17 16:20:00,
2013-02-17 09:22:00,48.9,0.1,29.70,ENE,75,1.0,5.0,13,0.00,,,0.00,Wunderground v.1.15,2013-02-17 16:22:00,
2013-02-17 09:24:00,49.2,0.3,29.69,East,86,3.0,5.0,13,0.00,,,0.00,Wunderground v.1.15,2013-02-17 16:24:00,
2013-02-17 09:25:00,49.3,0.4,29.69,SE,136,3.0,5.0,13,0.00,,,0.00,Wunderground v.1.15,2013-02-17 16:25:00,
2013-02-17 09:27:00,49.6,0.7,29.68,ESE,103,5.0,7.0,13,0.00,,,0.00,Wunderground v.1.15,2013-02-17 16:27:00,
2013-02-17 09:29:00,49.7,0.7,29.68,SE,127,2.0,7.0,13,0.00,,,0.00,Wunderground v.1.15,2013-02-17 16:29:00,
2013-02-17 09:30:00,49.8,2.4,29.68,SE,134,5.0,5.0,14,0.00,,,0.00,Wunderground v.1.15,2013-02-17 16:30:00,
2013-02-17 09:32:00,50.0,2.6,29.68,ESE,111,2.0,6.0,14,0.00,,,0.00,Wunderground v.1.15,2013-02-17 16:32:00,
2013-02-17 09:34:00,50.1,1.1,29.68,SSE,161,5.0,7.0,13,0.00,,,0.00,Wunderground v.1.15,2013-02-17 16:34:00,
2013-02-17 09:35:00,50.1,1.1,29.68,SE,127,2.0,7.0,13,0.00,,,0.00,Wunderground v.1.15,2013-02-17 16:35:00,
2013-02-17 09:37:00,50.3,2.8,29.67,ESE,119,3.0,7.0,14,0.00,,,0.00,Wunderground v.1.15,2013-02-17 16:37:00,
2013-02-17 09:39:00,50.3,1.2,29.67,ESE,104,2.0,7.0,13,0.00,,,0.00,Wunderground v.1.15,2013-02-17 16:39:00,
2013-02-17 09:41:00,50.4,1.3,29.67,ESE,108,4.0,6.0,13,0.00,,,0.00,Wunderground v.1.15,2013-02-17 16:41:00,
2013-02-17 09:42:00,50.5,3.0,29.67,East,97,5.0,7.0,14,0.00,,,0.00,Wunderground v.1.15,2013-02-17 16:42:00,
2013-02-17 09:44:00,50.4,1.3,29.68,East,89,2.0,7.0,13,0.00,,,0.00,Wunderground v.1.15,2013-02-17 16:44:00,
2013-02-17 09:46:00,50.4,1.3,29.68,ESE,119,4.0,7.0,13,0.00,,,0.00,Wunderground v.1.15,2013-02-17 16:46:00,
2013-02-17 09:47:00,50.3,1.2,29.69,ESE,111,3.0,7.0,13,0.00,,,0.00,Wunderground v.1.15,2013-02-17 16:47:00,
2013-02-17 09:49:00,50.3,1.2,29.68,SE,134,2.0,7.0,13,0.00,,,0.00,Wunderground v.1.15,2013-02-17 16:49:00,
2013-02-17 09:51:00,50.3,1.2,29.68,ESE,120,3.0,5.0,13,0.00,,,0.00,Wunderground v.1.15,2013-02-17 16:51:00,
2013-02-17 09:52:00,50.4,1.3,29.68,East,99,3.0,5.0,13,0.00,,,0.00,Wunderground v.1.15,2013-02-17 16:52:00,
2013-02-17 09:54:00,50.5,1.4,29.67,East,82,4.0,5.0,13,0.00,,,0.00,Wunderground v.1.15,2013-02-17 16:54:00,
2013-02-17 09:56:00,50.5,1.4,29.67,East,81,7.0,7.0,13,0.00,,,0.00,Wunderground v.1.15,2013-02-17 16:56:00,
2013-02-17 09:57:00,50.5,1.4,29.67,ENE,70,4.0,8.0,13,0.00,,,0.00,Wunderground v.1.15,2013-02-17 16:57:00,
2013-02-17 09:59:00,50.3,4.3,29.67,NE,46,3.0,9.0,15,0.00,,,0.00,Wunderground v.1.15,2013-02-17 16:59:00,
2013-02-17 10:00:00,50.2,4.2,29.67,NE,40,2.0,4.0,15,0.00,,,0.00,Wunderground v.1.15,2013-02-17 17:00:00,
2013-02-17 10:01:00,50.0,4.1,29.67,ENE,72,3.0,5.0,15,0.00,,,0.00,Wunderground v.1.15,2013-02-17 17:01:00,
2013-02-17 10:02:00,49.9,2.5,29.67,ENE,64,2.0,5.0,14,0.00,,,0.00,Wunderground v.1.15,2013-02-17 17:02:00,
2013-02-17 10:04:00,49.8,3.9,29.67,ENE,74,4.0,5.0,15,0.00,,,0.00,Wunderground v.1.15,2013-02-17 17:04:00,
2013-02-17 10:05:00,49.9,4.0,29.67,ENE,64,3.0,5.0,15,0.00,,,0.00,Wunderground v.1.15,2013-02-17 17:05:00,
2013-02-17 10:07:00,49.8,5.3,29.67,ENE,78,2.0,5.0,16,0.00,,,0.00,Wunderground v.1.15,2013-02-17 17:07:00,
2013-02-17 10:08:00,49.7,5.2,29.67,SE,127,3.0,5.0,16,0.00,,,0.00,Wunderground v.1.15,2013-02-17 17:08:00,
2013-02-17 10:10:00,49.7,5.2,29.66,ESE,119,1.0,2.0,16,0.00,,,0.00,Wunderground v.1.15,2013-02-17 17:10:00,
2013-02-17 10:12:00,49.7,6.6,29.66,ESE,104,1.0,2.0,17,0.00,,,0.00,Wunderground v.1.15,2013-02-17 17:12:00,
2013-02-17 10:13:00,49.8,5.3,29.66,East,86,2.0,4.0,16,0.00,,,0.00,Wunderground v.1.15,2013-02-17 17:13:00,
2013-02-17 10:15:00,49.8,5.3,29.65,East,81,1.0,4.0,16,0.00,,,0.00,Wunderground v.1.15,2013-02-17 17:15:00,
2013-02-17 10:17:00,49.8,5.3,29.66,NNE,26,4.0,8.0,16,0.00,,,0.00,Wunderground v.1.15,2013-02-17 17:17:00,
2013-02-17 10:18:00,49.8,5.3,29.66,ENE,63,3.0,9.0,16,0.00,,,0.00,Wunderground v.1.15,2013-02-17 17:18:00,
2013-02-17 10:20:00,49.9,5.4,29.66,East,82,2.0,3.0,16,0.00,,,0.00,Wunderground v.1.15,2013-02-17 17:20:00,
2013-02-17 10:23:00,49.9,6.7,29.65,East,90,3.0,-999.0,17,0.00,,,0.00,Wunderground v.1.15,2013-02-17 17:23:00,
2013-02-17 10:28:00,50.0,8.1,29.64,ESE,113,5.0,-999.0,18,0.00,,,0.00,Wunderground v.1.15,2013-02-17 17:28:00,
2013-02-17 10:33:00,49.6,7.8,29.65,SE,135,4.0,-999.0,18,0.00,,,0.00,Wunderground v.1.15,2013-02-17 17:33:00,
2013-02-17 10:38:00,49.4,8.8,29.65,SSW,203,2.0,-999.0,19,0.00,,,0.00,Wunderground v.1.15,2013-02-17 17:38:00,
2013-02-17 10:43:00,49.5,7.7,29.65,SE,135,0.0,-999.0,18,0.00,,,0.00,Wunderground v.1.15,2013-02-17 17:43:00,
2013-02-17 10:48:00,49.9,8.0,29.65,ESE,113,2.0,-999.0,18,0.00,,,0.00,Wunderground v.1.15,2013-02-17 17:48:00,
2013-02-17 10:53:00,50.2,8.2,29.65,SE,135,3.0,-999.0,18,0.00,,,0.00,Wunderground v.1.15,2013-02-17 17:53:00,
2013-02-17 10:58:00,50.4,8.4,29.65,NNE,23,4.0,-999.0,18,0.00,,,0.00,Wunderground v.1.15,2013-02-17 17:58:00,
2013-02-17 11:03:00,50.6,8.6,29.63,SE,135,2.0,-999.0,18,0.00,,,0.00,Wunderground v.1.15,2013-02-17 18:03:00,
2013-02-17 11:08:00,51.3,3.6,29.63,ESE,113,3.0,-999.0,14,0.00,,,0.00,Wunderground v.1.15,2013-02-17 18:08:00,
2013-02-17 11:13:00,52.0,7.1,29.63,ENE,68,3.0,-999.0,16,0.00,,,0.00,Wunderground v.1.15,2013-02-17 18:13:00,
2013-02-17 11:18:00,52.5,7.5,29.62,East,90,4.0,-999.0,16,0.00,,,0.00,Wunderground v.1.15,2013-02-17 18:18:00,
2013-02-17 11:23:00,53.1,5.1,29.63,SW,225,2.0,-999.0,14,0.00,,,0.00,Wunderground v.1.15,2013-02-17 18:23:00,
2013-02-17 11:28:00,53.9,4.1,29.62,SSE,158,1.0,-999.0,13,0.00,,,0.00,Wunderground v.1.15,2013-02-17 18:28:00,
2013-02-17 11:33:00,54.9,1.3,29.62,WNW,293,1.0,-999.0,11,0.00,,,0.00,Wunderground v.1.15,2013-02-17 18:33:00,
2013-02-17 11:38:00,55.3,-0.5,29.61,NNE,23,2.0,-999.0,10,0.00,,,0.00,Wunderground v.1.15,2013-02-17 18:38:00,
2013-02-17 11:43:00,55.3,-0.5,29.60,East,90,3.0,-999.0,10,0.00,,,0.00,Wunderground v.1.15,2013-02-17 18:43:00,
2013-02-17 11:48:00,55.3,1.6,29.60,ESE,113,3.0,-999.0,11,0.00,,,0.00,Wunderground v.1.15,2013-02-17 18:48:00,
2013-02-17 11:53:00,55.3,5.2,29.59,East,90,5.0,-999.0,13,0.00,,,0.00,Wunderground v.1.15,2013-02-17 18:53:00,
2013-02-17 11:58:00,55.1,-0.6,29.59,ESE,113,4.0,-999.0,10,0.00,,,0.00,Wunderground v.1.15,2013-02-17 18:58:00,
2013-02-17 12:03:00,55.3,5.2,29.59,East,90,2.0,-999.0,13,0.00,,,0.00,Wunderground v.1.15,2013-02-17 19:03:00,
2013-02-17 12:08:00,55.3,5.2,29.58,ENE,68,4.0,-999.0,13,0.00,,,0.00,Wunderground v.1.15,2013-02-17 19:08:00,
2013-02-17 12:13:00,55.0,6.6,29.57,East,90,5.0,-999.0,14,0.00,,,0.00,Wunderground v.1.15,2013-02-17 19:13:00,
2013-02-17 12:18:00,54.9,4.9,29.57,ENE,68,3.0,-999.0,13,0.00,,,0.00,Wunderground v.1.15,2013-02-17 19:18:00,
2013-02-17 12:23:00,54.9,1.3,29.57,NNE,23,4.0,-999.0,11,0.00,,,0.00,Wunderground v.1.15,2013-02-17 19:23:00,
2013-02-17 12:28:00,54.9,-0.8,29.56,East,90,4.0,-999.0,10,0.00,,,0.00,Wunderground v.1.15,2013-02-17 19:28:00,
2013-02-17 12:33:00,55.0,1.3,29.55,East,90,6.0,-999.0,11,0.00,,,0.00,Wunderground v.1.15,2013-02-17 19:33:00,
2013-02-17 12:38:00,55.2,-0.5,29.56,SE,135,4.0,-999.0,10,0.00,,,0.00,Wunderground v.1.15,2013-02-17 19:38:00,
2013-02-17 12:43:00,55.4,-0.4,29.56,SE,135,4.0,-999.0,10,0.00,,,0.00,Wunderground v.1.15,2013-02-17 19:43:00,
2013-02-17 12:48:00,55.4,-5.1,29.55,SE,135,3.0,-999.0,8,0.00,,,0.00,Wunderground v.1.15,2013-02-17 19:48:00,
2013-02-17 12:53:00,55.3,1.6,29.54,SE,135,2.0,-999.0,11,0.00,,,0.00,Wunderground v.1.15,2013-02-17 19:53:00,
2013-02-17 12:58:00,55.3,-0.5,29.54,SE,135,3.0,-999.0,10,0.00,,,0.00,Wunderground v.1.15,2013-02-17 19:58:00,
2013-02-17 13:03:00,55.2,1.5,29.54,SE,135,3.0,-999.0,11,0.00,,,0.00,Wunderground v.1.15,2013-02-17 20:03:00,
2013-02-17 13:08:00,55.5,-2.5,29.53,SSE,158,2.0,-999.0,9,0.00,,,0.00,Wunderground v.1.15,2013-02-17 20:08:00,
2013-02-17 13:13:00,55.9,-2.2,29.53,SE,135,2.0,-999.0,9,0.00,,,0.00,Wunderground v.1.15,2013-02-17 20:13:00,
2013-02-17 13:18:00,56.4,0.4,29.53,East,90,2.0,-999.0,10,0.00,,,0.00,Wunderground v.1.15,2013-02-17 20:18:00,
2013-02-17 13:23:00,56.7,0.6,29.53,NE,45,3.0,-999.0,10,0.00,,,0.00,Wunderground v.1.15,2013-02-17 20:23:00,
2013-02-17 13:28:00,56.6,2.6,29.52,NNE,23,7.0,-999.0,11,0.00,,,0.00,Wunderground v.1.15,2013-02-17 20:28:00,
2013-02-17 13:33:00,56.6,-4.2,29.51,East,90,6.0,-999.0,8,0.00,,,0.00,Wunderground v.1.15,2013-02-17 20:33:00,
2013-02-17 13:38:00,56.9,-4.0,29.52,SE,135,7.0,-999.0,8,0.00,,,0.00,Wunderground v.1.15,2013-02-17 20:38:00,
2013-02-17 13:43:00,56.9,-4.0,29.52,NNW,338,6.0,-999.0,8,0.00,,,0.00,Wunderground v.1.15,2013-02-17 20:43:00,
2013-02-17 13:48:00,57.0,-6.7,29.51,WNW,293,4.0,-999.0,7,0.00,,,0.00,Wunderground v.1.15,2013-02-17 20:48:00,
2013-02-17 13:53:00,57.3,-6.4,29.52,SW,225,3.0,-999.0,7,0.00,,,0.00,Wunderground v.1.15,2013-02-17 20:53:00,
2013-02-17 13:58:00,57.7,-6.1,29.51,SSW,203,7.0,-999.0,7,0.00,,,0.00,Wunderground v.1.15,2013-02-17 20:58:00,
2013-02-17 14:03:00,58.0,-3.1,29.51,WNW,293,9.0,-999.0,8,0.00,,,0.00,Wunderground v.1.15,2013-02-17 21:03:00,
2013-02-17 14:08:00,58.1,-5.8,29.51,NNW,338,7.0,-999.0,7,0.00,,,0.00,Wunderground v.1.15,2013-02-17 21:08:00,
2013-02-17 14:13:00,58.4,-5.6,29.51,West,270,7.0,-999.0,7,0.00,,,0.00,Wunderground v.1.15,2013-02-17 21:13:00,
2013-02-17 14:18:00,58.3,-5.7,29.51,NW,315,6.0,-999.0,7,0.00,,,0.00,Wunderground v.1.15,2013-02-17 21:18:00,
2013-02-17 14:23:00,58.3,-5.7,29.51,West,270,7.0,-999.0,7,0.00,,,0.00,Wunderground v.1.15,2013-02-17 21:23:00,
2013-02-17 14:28:00,57.8,-3.3,29.50,WNW,293,6.0,-999.0,8,0.00,,,0.00,Wunderground v.1.15,2013-02-17 21:28:00,
2013-02-17 14:33:00,57.9,-3.2,29.50,WNW,293,4.0,-999.0,8,0.00,,,0.00,Wunderground v.1.15,2013-02-17 21:33:00,
2013-02-17 14:38:00,57.8,-3.3,29.51,NW,315,9.0,-999.0,8,0.00,,,0.00,Wunderground v.1.15,2013-02-17 21:38:00,
2013-02-17 14:43:00,57.5,-6.3,29.51,WNW,293,8.0,-999.0,7,0.00,,,0.00,Wunderground v.1.15,2013-02-17 21:43:00,
2013-02-17 14:48:00,57.3,-6.4,29.51,WNW,293,10.0,-999.0,7,0.00,,,0.00,Wunderground v.1.15,2013-02-17 21:48:00,
2013-02-17 14:53:00,57.3,-3.7,29.50,NNW,338,9.0,-999.0,8,0.00,,,0.00,Wunderground v.1.15,2013-02-17 21:53:00,
2013-02-17 14:58:00,57.4,-6.4,29.50,WNW,293,8.0,-999.0,7,0.00,,,0.00,Wunderground v.1.15,2013-02-17 21:58:00,
2013-02-17 15:03:00,57.2,-3.7,29.50,SW,225,4.0,-999.0,8,0.00,,,0.00,Wunderground v.1.15,2013-02-17 22:03:00,
2013-02-17 15:08:00,57.3,-3.7,29.50,WNW,293,6.0,-999.0,8,0.00,,,0.00,Wunderground v.1.15,2013-02-17 22:08:00,
2013-02-17 15:13:00,56.7,-4.1,29.50,WNW,293,7.0,-999.0,8,0.00,,,0.00,Wunderground v.1.15,2013-02-17 22:13:00,
2013-02-17 15:18:00,56.2,-2.0,29.49,NW,315,6.0,-999.0,9,0.00,,,0.00,Wunderground v.1.15,2013-02-17 22:18:00,
2013-02-17 15:23:00,56.3,-1.9,29.50,West,270,7.0,-999.0,9,0.00,,,0.00,Wunderground v.1.15,2013-02-17 22:23:00,
2013-02-17 15:28:00,56.7,-4.1,29.50,WNW,293,11.0,-999.0,8,0.00,,,0.00,Wunderground v.1.15,2013-02-17 22:28:00,
2013-02-17 15:33:00,56.6,-4.2,29.50,West,270,8.0,-999.0,8,0.00,,,0.00,Wunderground v.1.15,2013-02-17 22:33:00,
2013-02-17 15:38:00,56.5,-1.8,29.51,West,270,11.0,-999.0,9,0.00,,,0.00,Wunderground v.1.15,2013-02-17 22:38:00,
2013-02-17 15:43:00,56.3,-1.9,29.51,West,270,8.0,-999.0,9,0.00,,,0.00,Wunderground v.1.15,2013-02-17 22:43:00,
2013-02-17 15:48:00,56.1,-2.1,29.51,West,270,8.0,-999.0,9,0.00,,,0.00,Wunderground v.1.15,2013-02-17 22:48:00,
2013-02-17 15:53:00,56.1,-2.1,29.51,WSW,248,9.0,-999.0,9,0.00,,,0.00,Wunderground v.1.15,2013-02-17 22:53:00,
2013-02-17 15:58:00,56.0,-2.2,29.50,SW,225,9.0,-999.0,9,0.00,,,0.00,Wunderground v.1.15,2013-02-17 22:58:00,
2013-02-17 16:03:00,55.9,0.0,29.50,WNW,293,9.0,-999.0,10,0.00,,,0.00,Wunderground v.1.15,2013-02-17 23:03:00,
2013-02-17 16:08:00,55.9,0.0,29.50,WNW,293,7.0,-999.0,10,0.00,,,0.00,Wunderground v.1.15,2013-02-17 23:08:00,
2013-02-17 16:13:00,55.3,1.6,29.51,West,270,7.0,-999.0,11,0.00,,,0.00,Wunderground v.1.15,2013-02-17 23:13:00,
2013-02-17 16:18:00,55.0,1.3,29.51,WNW,293,4.0,-999.0,11,0.00,,,0.00,Wunderground v.1.15,2013-02-17 23:18:00,
2013-02-17 16:23:00,55.3,-0.5,29.50,WNW,293,4.0,-999.0,10,0.00,,,0.00,Wunderground v.1.15,2013-02-17 23:23:00,
2013-02-17 16:28:00,55.3,1.6,29.50,WSW,248,5.0,-999.0,11,0.00,,,0.00,Wunderground v.1.15,2013-02-17 23:28:00,
2013-02-17 16:33:00,55.0,1.3,29.51,SW,225,5.0,-999.0,11,0.00,,,0.00,Wunderground v.1.15,2013-02-17 23:33:00,
2013-02-17 16:38:00,55.1,1.4,29.51,SW,225,4.0,-999.0,11,0.00,,,0.00,Wunderground v.1.15,2013-02-17 23:38:00,
2013-02-17 16:43:00,54.9,1.3,29.51,West,270,6.0,-999.0,11,0.00,,,0.00,Wunderground v.1.15,2013-02-17 23:43:00,
2013-02-17 16:48:00,54.5,2.8,29.51,West,270,5.0,-999.0,12,0.00,,,0.00,Wunderground v.1.15,2013-02-17 23:48:00,
2013-02-17 16:53:00,53.9,2.4,29.50,WSW,248,9.0,-999.0,12,0.00,,,0.00,Wunderground v.1.15,2013-02-17 23:53:00,
2013-02-17 16:58:00,53.2,1.8,29.51,WSW,248,4.0,-999.0,12,0.00,,,0.00,Wunderground v.1.15,2013-02-17 23:58:00,
2013-02-17 17:03:00,52.7,1.4,29.51,West,270,3.0,-999.0,12,0.00,,,0.00,Wunderground v.1.15,2013-02-18 00:03:00,
2013-02-17 17:08:00,52.2,2.7,29.51,WNW,293,6.0,-999.0,13,0.00,,,0.00,Wunderground v.1.15,2013-02-18 00:08:00,
2013-02-17 17:13:00,51.9,2.5,29.51,West,270,6.0,-999.0,13,0.00,,,0.00,Wunderground v.1.15,2013-02-18 00:13:00,
2013-02-17 17:18:00,51.7,2.3,29.51,WSW,248,6.0,-999.0,13,0.00,,,0.00,Wunderground v.1.15,2013-02-18 00:18:00,
2013-02-17 17:23:00,51.6,3.9,29.51,West,270,5.0,-999.0,14,0.00,,,0.00,Wunderground v.1.15,2013-02-18 00:23:00,
2013-02-17 17:28:00,51.4,3.7,29.51,West,270,6.0,-999.0,14,0.00,,,0.00,Wunderground v.1.15,2013-02-18 00:28:00,
2013-02-17 17:33:00,51.2,3.5,29.51,WSW,248,3.0,-999.0,14,0.00,,,0.00,Wunderground v.1.15,2013-02-18 00:33:00,
2013-02-17 17:38:00,50.7,3.1,29.51,West,270,1.0,-999.0,14,0.00,,,0.00,Wunderground v.1.15,2013-02-18 00:38:00,
2013-02-17 17:43:00,50.4,4.4,29.51,West,270,3.0,-999.0,15,0.00,,,0.00,Wunderground v.1.15,2013-02-18 00:43:00,
2013-02-17 17:48:00,50.2,4.2,29.51,SW,225,2.0,-999.0,15,0.00,,,0.00,Wunderground v.1.15,2013-02-18 00:48:00,
2013-02-17 17:53:00,49.6,3.8,29.51,West,270,2.0,-999.0,15,0.00,,,0.00,Wunderground v.1.15,2013-02-18 00:53:00,
2013-02-17 17:58:00,49.2,4.8,29.51,SW,225,2.0,-999.0,16,0.00,,,0.00,Wunderground v.1.15,2013-02-18 00:58:00,
2013-02-17 18:03:00,48.6,4.3,29.51,West,270,2.0,-999.0,16,0.00,,,0.00,Wunderground v.1.15,2013-02-18 01:03:00,
2013-02-17 18:08:00,48.4,5.5,29.52,West,270,2.0,-999.0,17,0.00,,,0.00,Wunderground v.1.15,2013-02-18 01:08:00,
2013-02-17 18:13:00,48.0,5.2,29.52,WSW,248,4.0,-999.0,17,0.00,,,0.00,Wunderground v.1.15,2013-02-18 01:13:00,
2013-02-17 18:22:00,46.8,5.4,29.53,WNW,283,4.0,4.0,18,0.00,,,0.00,Wunderground v.1.15,2013-02-18 01:22:00,
2013-02-17 18:27:00,46.7,5.4,29.53,WNW,289,2.0,4.0,18,0.00,,,0.00,Wunderground v.1.15,2013-02-18 01:27:00,
2013-02-17 18:28:00,46.8,5.4,29.53,West,280,3.0,4.0,18,0.00,,,0.00,Wunderground v.1.15,2013-02-18 01:28:00,
2013-02-17 18:32:00,46.9,5.5,29.53,WNW,293,4.0,4.0,18,0.00,,,0.00,Wunderground v.1.15,2013-02-18 01:32:00,
2013-02-17 18:33:00,46.9,5.5,29.53,WNW,283,6.0,7.0,18,0.00,,,0.00,Wunderground v.1.15,2013-02-18 01:33:00,
2013-02-17 18:37:00,47.7,6.2,29.54,West,280,4.0,10.0,18,0.00,,,0.00,Wunderground v.1.15,2013-02-18 01:37:00,
2013-02-17 18:38:00,47.7,6.2,29.54,WNW,284,3.0,10.0,18,0.00,,,0.00,Wunderground v.1.15,2013-02-18 01:38:00,
2013-02-17 18:42:00,48.1,6.5,29.54,NW,314,4.0,6.0,18,0.00,,,0.00,Wunderground v.1.15,2013-02-18 01:42:00,
2013-02-17 18:43:00,48.1,6.5,29.54,NW,319,2.0,6.0,18,0.00,,,0.00,Wunderground v.1.15,2013-02-18 01:43:00,
2013-02-17 18:48:00,48.0,6.4,29.54,SW,217,0.0,6.0,18,0.00,,,0.00,Wunderground v.1.15,2013-02-18 01:48:00,
2013-02-17 18:53:00,46.9,6.7,29.54,WSW,250,2.0,2.0,19,0.00,,,0.00,Wunderground v.1.15,2013-02-18 01:53:00,
2013-02-17 18:58:00,46.3,6.2,29.54,WSW,253,4.0,4.0,19,0.00,,,0.00,Wunderground v.1.15,2013-02-18 01:58:00,
2013-02-17 19:03:00,45.6,6.8,29.54,WSW,248,4.0,4.0,20,0.00,,,0.00,Wunderground v.1.15,2013-02-18 02:03:00,
2013-02-17 19:08:00,45.1,7.4,29.54,NNW,335,4.0,4.0,21,0.00,,,0.00,Wunderground v.1.15,2013-02-18 02:08:00,
2013-02-17 19:09:00,44.8,7.2,29.54,NW,321,3.0,4.0,21,0.00,,,0.00,Wunderground v.1.15,2013-02-18 02:09:00,
2013-02-17 19:13:00,43.7,7.3,29.55,NW,305,2.0,5.0,22,0.00,,,0.00,Wunderground v.1.15,2013-02-18 02:13:00,
2013-02-17 19:14:00,43.7,7.3,29.55,WNW,294,3.0,5.0,22,0.00,,,0.00,Wunderground v.1.15,2013-02-18 02:14:00,
2013-02-17 19:18:00,43.6,7.2,29.54,WNW,293,3.0,5.0,22,0.00,,,0.00,Wunderground v.1.15,2013-02-18 02:18:00,
2013-02-17 19:19:00,43.6,7.2,29.54,WNW,293,3.0,5.0,22,0.00,,,0.00,Wunderground v.1.15,2013-02-18 02:19:00,
2013-02-17 19:23:00,43.2,7.8,29.55,West,271,3.0,4.0,23,0.00,,,0.00,Wunderground v.1.15,2013-02-18 02:23:00,
2013-02-17 19:24:00,43.1,7.7,29.55,WNW,285,4.0,4.0,23,0.00,,,0.00,Wunderground v.1.15,2013-02-18 02:24:00,
2013-02-17 19:28:00,43.1,8.7,29.55,WNW,296,4.0,5.0,24,0.00,,,0.00,Wunderground v.1.15,2013-02-18 02:28:00,
2013-02-17 19:29:00,43.0,8.6,29.55,West,266,5.0,6.0,24,0.00,,,0.00,Wunderground v.1.15,2013-02-18 02:29:00,
2013-02-17 19:33:00,42.8,8.4,29.55,WNW,286,7.0,10.0,24,0.00,,,0.00,Wunderground v.1.15,2013-02-18 02:33:00,
2013-02-17 19:34:00,43.0,9.5,29.55,WNW,284,6.0,10.0,25,0.00,,,0.00,Wunderground v.1.15,2013-02-18 02:34:00,
2013-02-17 19:38:00,43.0,8.6,29.55,WNW,291,5.0,10.0,24,0.00,,,0.00,Wunderground v.1.15,2013-02-18 02:38:00,
2013-02-17 19:39:00,43.1,9.6,29.56,WNW,285,7.0,10.0,25,0.00,,,0.00,Wunderground v.1.15,2013-02-18 02:39:00,
2013-02-17 19:43:00,43.4,8.9,29.56,West,267,3.0,8.0,24,0.00,,,0.00,Wunderground v.1.15,2013-02-18 02:43:00,
2013-02-17 19:44:00,43.4,8.9,29.56,West,277,4.0,8.0,24,0.00,,,0.00,Wunderground v.1.15,2013-02-18 02:44:00,
2013-02-17 19:45:00,43.4,8.9,29.56,WNW,288,3.0,8.0,24,0.00,,,0.00,Wunderground v.1.15,2013-02-18 02:45:00,
2013-02-17 19:48:00,43.1,9.6,29.56,NW,313,6.0,8.0,25,0.00,,,0.00,Wunderground v.1.15,2013-02-18 02:48:00,
2013-02-17 19:49:00,43.1,10.5,29.56,NNW,341,7.0,8.0,26,0.00,,,0.00,Wunderground v.1.15,2013-02-18 02:49:00,
2013-02-17 19:50:00,43.3,10.7,29.56,NW,311,9.0,10.0,26,0.00,,,0.00,Wunderground v.1.15,2013-02-18 02:50:00,
2013-02-17 19:54:00,43.7,11.0,29.56,NNW,328,2.0,10.0,26,0.00,,,0.00,Wunderground v.1.15,2013-02-18 02:54:00,
2013-02-17 19:55:00,43.7,11.0,29.56,NW,309,7.0,10.0,26,0.00,,,0.00,Wunderground v.1.15,2013-02-18 02:55:00,
2013-02-17 19:59:00,43.6,11.8,29.56,West,274,5.0,10.0,27,0.00,,,0.00,Wunderground v.1.15,2013-02-18 02:59:00,
2013-02-17 20:00:00,43.4,11.6,29.56,NW,309,4.0,6.0,27,0.00,,,0.00,Wunderground v.1.15,2013-02-18 03:00:00,
2013-02-17 20:04:00,42.9,11.2,29.57,West,270,2.0,6.0,27,0.00,,,0.00,Wunderground v.1.15,2013-02-18 03:04:00,
2013-02-17 20:05:00,42.7,11.0,29.57,West,259,2.0,6.0,27,0.00,,,0.00,Wunderground v.1.15,2013-02-18 03:05:00,
2013-02-17 20:09:00,42.5,12.4,29.57,West,269,5.0,6.0,29,0.00,,,0.00,Wunderground v.1.15,2013-02-18 03:09:00,
2013-02-17 20:10:00,42.5,12.4,29.57,NW,316,7.0,9.0,29,0.00,,,0.00,Wunderground v.1.15,2013-02-18 03:10:00,
2013-02-17 20:14:00,42.1,12.1,29.57,NW,314,2.0,9.0,29,0.00,,,0.00,Wunderground v.1.15,2013-02-18 03:14:00,
2013-02-17 20:15:00,42.0,12.0,29.57,NW,309,2.0,9.0,29,0.00,,,0.00,Wunderground v.1.15,2013-02-18 03:15:00,
2013-02-17 20:19:00,41.6,13.2,29.57,NNW,338,4.0,9.0,31,0.00,,,0.00,Wunderground v.1.15,2013-02-18 03:19:00,
2013-02-17 20:20:00,41.7,13.2,29.57,NW,326,1.0,4.0,31,0.00,,,0.00,Wunderground v.1.15,2013-02-18 03:20:00,
2013-02-17 20:21:00,41.7,13.2,29.57,NW,326,1.0,4.0,31,0.00,,,0.00,Wunderground v.1.15,2013-02-18 03:21:00,
2013-02-17 20:24:00,41.5,13.8,29.57,ENE,73,5.0,5.0,32,0.00,,,0.00,Wunderground v.1.15,2013-02-18 03:24:00,
2013-02-17 20:25:00,41.5,13.8,29.57,North,11,5.0,8.0,32,0.00,,,0.00,Wunderground v.1.15,2013-02-18 03:25:00,
2013-02-17 20:26:00,41.5,13.8,29.57,NE,36,3.0,8.0,32,0.00,,,0.00,Wunderground v.1.15,2013-02-18 03:26:00,
2013-02-17 20:30:00,41.6,13.9,29.57,NNE,25,0.0,3.0,32,0.00,,,0.00,Wunderground v.1.15,2013-02-18 03:30:00,
2013-02-17 20:31:00,41.5,13.8,29.57,NNW,345,2.0,3.0,32,0.00,,,0.00,Wunderground v.1.15,2013-02-18 03:31:00,
2013-02-17 20:35:00,40.9,14.0,29.57,ENE,63,2.0,6.0,33,0.00,,,0.00,Wunderground v.1.15,2013-02-18 03:35:00,
2013-02-17 20:36:00,40.9,14.0,29.57,NE,36,4.0,6.0,33,0.00,,,0.00,Wunderground v.1.15,2013-02-18 03:36:00,
2013-02-17 20:40:00,40.7,13.8,29.58,NNE,18,3.0,4.0,33,0.00,,,0.00,Wunderground v.1.15,2013-02-18 03:40:00,
2013-02-17 20:41:00,40.5,15.0,29.57,NNE,15,10.0,15.0,35,0.00,,,0.00,Wunderground v.1.15,2013-02-18 03:41:00,
2013-02-17 20:45:00,40.3,17.3,29.58,North,360,8.0,15.0,39,0.00,,,0.00,Wunderground v.1.15,2013-02-18 03:45:00,
2013-02-17 20:46:00,40.1,18.3,29.58,NNE,15,6.0,15.0,41,0.00,,,0.00,Wunderground v.1.15,2013-02-18 03:46:00,
2013-02-17 20:47:00,40.1,18.3,29.58,NNW,337,8.0,15.0,41,0.00,,,0.00,Wunderground v.1.15,2013-02-18 03:47:00,
2013-02-17 20:50:00,39.8,19.1,29.58,NNE,13,13.0,15.0,43,0.00,,,0.00,Wunderground v.1.15,2013-02-18 03:50:00,
2013-02-17 20:52:00,39.7,19.0,29.58,ENE,58,17.0,18.0,43,0.00,,,0.00,Wunderground v.1.15,2013-02-18 03:52:00,
2013-02-17 20:55:00,39.1,18.5,29.58,NNE,13,7.0,18.0,43,0.00,,,0.00,Wunderground v.1.15,2013-02-18 03:55:00,
2013-02-17 20:57:00,38.8,18.2,29.58,NNE,30,9.0,18.0,43,0.00,,,0.00,Wunderground v.1.15,2013-02-18 03:57:00,
2013-02-17 21:00:00,38.4,18.4,29.58,NNE,30,10.0,12.0,44,0.00,,,0.00,Wunderground v.1.15,2013-02-18 04:00:00,
2013-02-17 21:01:00,38.4,18.4,29.58,NNW,348,10.0,14.0,44,0.00,,,0.00,Wunderground v.1.15,2013-02-18 04:01:00,
2013-02-17 21:02:00,38.3,18.3,29.58,NNE,30,12.0,17.0,44,0.00,,,0.00,Wunderground v.1.15,2013-02-18 04:02:00,
2013-02-17 21:05:00,38.0,18.0,29.59,NNW,343,4.0,17.0,44,0.00,,,0.00,Wunderground v.1.15,2013-02-18 04:05:00,
2013-02-17 21:06:00,37.9,17.9,29.59,NNE,23,5.0,17.0,44,0.00,,,0.00,Wunderground v.1.15,2013-02-18 04:06:00,
2013-02-17 21:07:00,37.8,17.8,29.59,NE,51,3.0,17.0,44,0.00,,,0.00,Wunderground v.1.15,2013-02-18 04:07:00,
2013-02-17 21:10:00,37.5,18.1,29.59,NNE,23,11.0,13.0,45,0.00,,,0.00,Wunderground v.1.15,2013-02-18 04:10:00,
2013-02-17 21:11:00,37.5,18.1,29.59,NE,36,5.0,13.0,45,0.00,,,0.00,Wunderground v.1.15,2013-02-18 04:11:00,
2013-02-17 21:12:00,37.5,18.1,29.59,NNE,30,4.0,13.0,45,0.00,,,0.00,Wunderground v.1.15,2013-02-18 04:12:00,
2013-02-17 21:15:00,37.4,18.0,29.60,WNW,302,2.0,13.0,45,0.00,,,0.00,Wunderground v.1.15,2013-02-18 04:15:00,
2013-02-17 21:16:00,37.3,17.9,29.60,WNW,297,2.0,13.0,45,0.00,,,0.00,Wunderground v.1.15,2013-02-18 04:16:00,
2013-02-17 21:17:00,37.3,17.9,29.60,East,98,1.0,13.0,45,0.00,,,0.00,Wunderground v.1.15,2013-02-18 04:17:00,
2013-02-17 21:21:00,37.0,17.1,29.60,NNE,22,0.0,4.0,44,0.00,,,0.00,Wunderground v.1.15,2013-02-18 04:21:00,
2013-02-17 21:22:00,36.8,16.9,29.60,NNE,22,0.0,4.0,44,0.00,,,0.00,Wunderground v.1.15,2013-02-18 04:22:00,
2013-02-17 21:26:00,36.5,17.1,29.60,North,349,7.0,13.0,45,0.00,,,0.00,Wunderground v.1.15,2013-02-18 04:26:00,
2013-02-17 21:27:00,36.5,17.1,29.61,NNE,25,8.0,13.0,45,0.00,,,0.00,Wunderground v.1.15,2013-02-18 04:27:00,
2013-02-17 21:28:00,36.7,16.8,29.61,NNE,33,6.0,13.0,44,0.00,,,0.00,Wunderground v.1.15,2013-02-18 04:28:00,
2013-02-17 21:31:00,37.2,16.2,29.61,NNE,26,12.0,14.0,42,0.00,,,0.00,Wunderground v.1.15,2013-02-18 04:31:00,
2013-02-17 21:32:00,37.1,16.1,29.61,NNE,33,10.0,14.0,42,0.00,,,0.00,Wunderground v.1.15,2013-02-18 04:32:00,
2013-02-17 21:33:00,37.0,16.0,29.61,NNE,12,11.0,17.0,42,0.00,,,0.00,Wunderground v.1.15,2013-02-18 04:33:00,
2013-02-17 21:36:00,36.8,15.3,29.62,NNE,19,11.0,22.0,41,0.00,,,0.00,Wunderground v.1.15,2013-02-18 04:36:00,
2013-02-17 21:37:00,36.7,15.2,29.62,NNE,33,20.0,22.0,41,0.00,,,0.00,Wunderground v.1.15,2013-02-18 04:37:00,
2013-02-17 21:38:00,36.7,14.6,29.62,NE,37,16.0,22.0,40,0.00,,,0.00,Wunderground v.1.15,2013-02-18 04:38:00,
2013-02-17 21:41:00,36.5,14.4,29.62,NNE,23,16.0,17.0,40,0.00,,,0.00,Wunderground v.1.15,2013-02-18 04:41:00,
2013-02-17 21:42:00,36.5,14.4,29.62,NE,36,18.0,23.0,40,0.00,,,0.00,Wunderground v.1.15,2013-02-18 04:42:00,
2013-02-17 21:44:00,36.5,14.4,29.63,NE,41,20.0,23.0,40,0.00,,,0.00,Wunderground v.1.15,2013-02-18 04:44:00,
2013-02-17 21:46:00,36.7,14.0,29.62,NNE,23,13.0,23.0,39,0.00,,,0.00,Wunderground v.1.15,2013-02-18 04:46:00,
2013-02-17 21:47:00,36.7,14.0,29.62,NE,39,19.0,23.0,39,0.00,,,0.00,Wunderground v.1.15,2013-02-18 04:47:00,
2013-02-17 21:49:00,36.9,13.6,29.63,NE,36,6.0,23.0,38,0.00,,,0.00,Wunderground v.1.15,2013-02-18 04:49:00,
2013-02-17 21:51:00,36.8,13.5,29.63,NW,323,10.0,14.0,38,0.00,,,0.00,Wunderground v.1.15,2013-02-18 04:51:00,
2013-02-17 21:52:00,36.8,13.5,29.62,WSW,240,8.0,14.0,38,0.00,,,0.00,Wunderground v.1.15,2013-02-18 04:52:00,
2013-02-17 21:54:00,36.8,13.5,29.62,NNE,33,20.0,20.0,38,0.00,,,0.00,Wunderground v.1.15,2013-02-18 04:54:00,
2013-02-17 21:56:00,36.8,13.5,29.62,NNE,30,23.0,28.0,38,0.00,,,0.00,Wunderground v.1.15,2013-02-18 04:56:00,
2013-02-17 21:57:00,36.8,13.5,29.62,NNE,33,18.0,28.0,38,0.00,,,0.00,Wunderground v.1.15,2013-02-18 04:57:00,
2013-02-17 21:59:00,36.9,13.0,29.61,NNE,20,17.0,28.0,37,0.00,,,0.00,Wunderground v.1.15,2013-02-18 04:59:00,
2013-02-17 22:00:00,36.9,13.0,29.61,NE,51,19.0,19.0,37,0.00,,,0.00,Wunderground v.1.15,2013-02-18 05:00:00,
2013-02-17 22:05:00,37.1,12.6,29.63,SW,233,5.0,20.0,36,0.00,,,0.00,Wunderground v.1.15,2013-02-18 05:05:00,
2013-02-17 22:10:00,37.7,11.8,29.62,North,353,19.0,24.0,34,0.00,,,0.00,Wunderground v.1.15,2013-02-18 05:10:00,
2013-02-17 22:11:00,37.8,11.2,29.62,NNW,328,17.0,32.0,33,0.00,,,0.00,Wunderground v.1.15,2013-02-18 05:11:00,
2013-02-17 22:15:00,39.0,11.6,29.63,North,8,8.0,32.0,32,0.00,,,0.00,Wunderground v.1.15,2013-02-18 05:15:00,
2013-02-17 22:16:00,38.7,11.3,29.63,NNE,20,6.0,32.0,32,0.00,,,0.00,Wunderground v.1.15,2013-02-18 05:16:00,
2013-02-17 22:20:00,38.0,10.7,29.65,NNW,345,5.0,12.0,32,0.00,,,0.00,Wunderground v.1.15,2013-02-18 05:20:00,
2013-02-17 22:21:00,38.0,11.4,29.65,NNW,328,7.0,12.0,33,0.00,,,0.00,Wunderground v.1.15,2013-02-18 05:21:00,
2013-02-17 22:25:00,37.6,10.4,29.65,North,354,7.0,15.0,32,0.00,,,0.00,Wunderground v.1.15,2013-02-18 05:25:00,
2013-02-17 22:26:00,37.5,10.3,29.65,NE,38,4.0,15.0,32,0.00,,,0.00,Wunderground v.1.15,2013-02-18 05:26:00,
2013-02-17 22:30:00,36.8,9.7,29.65,NNE,27,7.0,14.0,32,0.00,,,0.00,Wunderground v.1.15,2013-02-18 05:30:00,
2013-02-17 22:31:00,36.8,9.7,29.65,ENE,70,7.0,14.0,32,0.00,,,0.00,Wunderground v.1.15,2013-02-18 05:31:00,
2013-02-17 22:35:00,36.4,9.3,29.65,NNE,23,18.0,20.0,32,0.00,,,0.00,Wunderground v.1.15,2013-02-18 05:35:00,
2013-02-17 22:36:00,36.4,9.3,29.65,NE,36,19.0,20.0,32,0.00,,,0.00,Wunderground v.1.15,2013-02-18 05:36:00,
2013-02-17 22:40:00,36.1,9.7,29.65,NNE,19,15.0,22.0,33,0.00,,,0.00,Wunderground v.1.15,2013-02-18 05:40:00,
2013-02-17 22:41:00,36.0,9.6,29.65,NE,40,16.0,22.0,33,0.00,,,0.00,Wunderground v.1.15,2013-02-18 05:41:00,
2013-02-17 22:45:00,35.9,9.5,29.65,NE,50,6.0,22.0,33,0.00,,,0.00,Wunderground v.1.15,2013-02-18 05:45:00,
2013-02-17 22:46:00,35.8,9.5,29.66,ENE,61,4.0,22.0,33,0.00,,,0.00,Wunderground v.1.15,2013-02-18 05:46:00,
2013-02-17 22:51:00,35.7,9.4,29.66,NNE,20,16.0,18.0,33,0.00,,,0.00,Wunderground v.1.15,2013-02-18 05:51:00,
2013-02-17 22:56:00,35.7,9.4,29.66,ESE,102,8.0,18.0,33,0.00,,,0.00,Wunderground v.1.15,2013-02-18 05:56:00,
2013-02-17 22:57:00,35.7,9.4,29.67,East,79,4.0,18.0,33,0.00,,,0.00,Wunderground v.1.15,2013-02-18 05:57:00,
2013-02-17 23:01:00,35.8,9.5,29.66,NE,47,8.0,14.0,33,0.00,,,0.00,Wunderground v.1.15,2013-02-18 06:01:00,
2013-02-17 23:02:00,35.9,9.5,29.66,NE,43,8.0,14.0,33,0.00,,,0.00,Wunderground v.1.15,2013-02-18 06:02:00,
2013-02-17 23:06:00,35.9,8.9,29.67,NNE,27,10.0,14.0,32,0.00,,,0.00,Wunderground v.1.15,2013-02-18 06:06:00,
2013-02-17 23:07:00,35.9,9.5,29.67,NNE,33,6.0,14.0,33,0.00,,,0.00,Wunderground v.1.15,2013-02-18 06:07:00,
2013-02-17 23:11:00,35.8,9.5,29.67,NNE,33,8.0,12.0,33,0.00,,,0.00,Wunderground v.1.15,2013-02-18 06:11:00,
2013-02-17 23:12:00,35.8,9.5,29.67,ENE,58,7.0,12.0,33,0.00,,,0.00,Wunderground v.1.15,2013-02-18 06:12:00,
2013-02-17 23:17:00,35.5,9.2,29.66,NE,37,13.0,14.0,33,0.00,,,0.00,Wunderground v.1.15,2013-02-18 06:17:00,
2013-02-17 23:22:00,35.5,9.2,29.67,NE,36,3.0,7.0,33,0.00,,,0.00,Wunderground v.1.15,2013-02-18 06:22:00,
2013-02-17 23:23:00,35.4,9.1,29.67,NNE,26,2.0,7.0,33,0.00,,,0.00,Wunderground v.1.15,2013-02-18 06:23:00,
2013-02-17 23:27:00,34.8,9.2,29.68,NE,56,2.0,7.0,34,0.00,,,0.00,Wunderground v.1.15,2013-02-18 06:27:00,
2013-02-17 23:28:00,34.8,9.2,29.68,NE,37,2.0,7.0,34,0.00,,,0.00,Wunderground v.1.15,2013-02-18 06:28:00,
2013-02-17 23:32:00,34.3,8.8,29.67,ENE,58,4.0,6.0,34,0.00,,,0.00,Wunderground v.1.15,2013-02-18 06:32:00,
2013-02-17 23:33:00,34.4,8.9,29.67,NNE,30,8.0,9.0,34,0.00,,,0.00,Wunderground v.1.15,2013-02-18 06:33:00,
2013-02-17 23:37:00,34.4,8.9,29.68,NNW,337,7.0,9.0,34,0.00,,,0.00,Wunderground v.1.15,2013-02-18 06:37:00,
2013-02-17 23:38:00,34.5,9.0,29.68,ENE,78,4.0,9.0,34,0.00,,,0.00,Wunderground v.1.15,2013-02-18 06:38:00,
2013-02-17 23:42:00,34.3,8.8,29.68,NNE,22,7.0,10.0,34,0.00,,,0.00,Wunderground v.1.15,2013-02-18 06:42:00,
2013-02-17 23:43:00,34.4,8.9,29.68,NNE,13,10.0,11.0,34,0.00,,,0.00,Wunderground v.1.15,2013-02-18 06:43:00,
2013-02-17 23:48:00,34.6,8.4,29.69,NNE,20,3.0,11.0,33,0.00,,,0.00,Wunderground v.1.15,2013-02-18 06:48:00,
2013-02-17 23:53:00,34.5,8.3,29.69,NW,325,0.0,5.0,33,0.00,,,0.00,Wunderground v.1.15,2013-02-18 06:53:00,
2013-02-17 23:58:00,34.2,8.7,29.70,ESE,121,1.0,5.0,34,0.00,,,0.00,Wunderground v.1.15,2013-02-18 06:58:00,
2013-02-17 23:59:00,34.1,8.6,29.70,ESE,122,1.0,5.0,34,0.00,,,0.00,Wunderground v.1.15,2013-02-18 06:59:00,